| time (UTC) | temp F | wind direction | speed MPH | gust MPH | rain 1hr in | rain 24hr in | rain mn in | humidity % | barometer mb |
| 20260901184404 | 90 | 0 | 4.0 | 11.0 | 0.00 | 0.00 | 0.00 | 64 | 1008.6 |
| 20260901184305 | 91 | 1 | 4.0 | 11.0 | 0.00 | 0.00 | 0.00 | 64 | 1008.7 |
| 20260901184202 | 91 | 340 | 4.0 | 11.0 | 0.00 | 0.00 | 0.00 | 64 | 1008.7 |
| 20260901184103 | 90 | 17 | 3.0 | 11.0 | 0.00 | 0.00 | 0.00 | 63 | 1008.7 |
| 20260901184004 | 90 | 6 | 2.0 | 11.0 | 0.00 | 0.00 | 0.00 | 63 | 1008.7 |
| 20260901183903 | 90 | 13 | 4.0 | 11.0 | 0.00 | 0.00 | 0.00 | 64 | 1008.7 |
| 20260901183801 | 90 | 11 | 5.0 | 11.0 | 0.00 | 0.00 | 0.00 | 64 | 1008.8 |
| 20260901183703 | 90 | 62 | 5.0 | 11.0 | 0.00 | 0.00 | 0.00 | 64 | 1008.7 |
| 20260901183602 | 90 | 0 | 4.0 | 11.0 | 0.00 | 0.00 | 0.00 | 64 | 1008.7 |
| 20260901183504 | 90 | 62 | 3.0 | 9.0 | 0.00 | 0.00 | 0.00 | 64 | 1008.7 |
| 20260901183404 | 90 | 49 | 4.0 | 9.0 | 0.00 | 0.00 | 0.00 | 64 | 1008.7 |
| 20260901183304 | 90 | 41 | 5.0 | 9.0 | 0.00 | 0.00 | 0.00 | 66 | 1008.7 |
| 20260901183202 | 90 | 0 | 6.0 | 9.0 | 0.00 | 0.00 | 0.00 | 66 | 1008.7 |
| 20260901183102 | 89 | 357 | 6.0 | 9.0 | 0.00 | 0.00 | 0.00 | 66 | 1008.8 |
| 20260901183002 | 89 | 290 | 4.0 | 9.0 | 0.00 | 0.00 | 0.00 | 65 | 1008.7 |
| 20260901182903 | 89 | 327 | 3.0 | 9.0 | 0.00 | 0.00 | 0.00 | 65 | 1008.7 |
| 20260901182803 | 89 | 66 | 3.0 | 10.0 | 0.00 | 0.00 | 0.00 | 66 | 1008.7 |
| 20260901182701 | 89 | 0 | 3.0 | 10.0 | 0.00 | 0.00 | 0.00 | 66 | 1008.8 |
| 20260901182603 | 89 | 330 | 4.0 | 10.0 | 0.00 | 0.00 | 0.00 | 66 | 1008.7 |
| 20260901182502 | 89 | 0 | 5.0 | 10.0 | 0.00 | 0.00 | 0.00 | 66 | 1008.8 |
| 20260901182402 | 89 | 296 | 5.0 | 10.0 | 0.00 | 0.00 | 0.00 | 65 | 1008.8 |
| 20260901182305 | 90 | 347 | 6.0 | 10.0 | 0.00 | 0.00 | 0.00 | 65 | 1008.9 |
| 20260901182202 | 90 | 336 | 6.0 | 10.0 | 0.00 | 0.00 | 0.00 | 65 | 1008.9 |
| 20260901182102 | 90 | 340 | 5.0 | 10.0 | 0.00 | 0.00 | 0.00 | 65 | 1008.9 |
| 20260901182004 | 90 | 0 | 5.0 | 10.0 | 0.00 | 0.00 | 0.00 | 65 | 1008.9 |
| 20260901181902 | 90 | 357 | 6.0 | 10.0 | 0.00 | 0.00 | 0.00 | 65 | 1008.9 |
| 20260901181804 | 90 | 348 | 3.0 | 10.0 | 0.00 | 0.00 | 0.00 | 66 | 1008.9 |
| 20260901181703 | 89 | 11 | 2.0 | 10.0 | 0.00 | 0.00 | 0.00 | 66 | 1008.9 |
| 20260901181604 | 89 | 11 | 3.0 | 10.0 | 0.00 | 0.00 | 0.00 | 65 | 1008.8 |
| 20260901181504 | 89 | 0 | 6.0 | 10.0 | 0.00 | 0.00 | 0.00 | 65 | 1009.0 |
| 20260901181403 | 89 | 16 | 6.0 | 10.0 | 0.00 | 0.00 | 0.00 | 65 | 1008.9 |
| 20260901181303 | 89 | 0 | 7.0 | 10.0 | 0.00 | 0.00 | 0.00 | 65 | 1008.9 |
| 20260901181202 | 89 | 0 | 7.0 | 10.0 | 0.00 | 0.00 | 0.00 | 65 | 1008.9 |
| 20260901181102 | 89 | 357 | 7.0 | 10.0 | 0.00 | 0.00 | 0.00 | 65 | 1008.9 |
| 20260901181002 | 89 | 6 | 4.0 | 10.0 | 0.00 | 0.00 | 0.00 | 65 | 1008.9 |
| 20260901180905 | 89 | 68 | 1.0 | 9.0 | 0.00 | 0.00 | 0.00 | 66 | 1008.9 |
| 20260901180802 | 89 | 30 | 2.0 | 9.0 | 0.00 | 0.00 | 0.00 | 66 | 1009.0 |
| 20260901180704 | 89 | 11 | 4.0 | 9.0 | 0.00 | 0.00 | 0.00 | 66 | 1009.1 |
| 20260901180603 | 89 | 75 | 4.0 | 9.0 | 0.00 | 0.00 | 0.00 | 66 | 1009.0 |
| 20260901180504 | 89 | 71 | 6.0 | 9.0 | 0.00 | 0.00 | 0.00 | 65 | 1009.0 |
| 20260901180403 | 89 | 31 | 6.0 | 9.0 | 0.00 | 0.00 | 0.00 | 65 | 1009.1 |
| 20260901180303 | 90 | 0 | 6.0 | 9.0 | 0.00 | 0.00 | 0.00 | 65 | 1009.1 |
| 20260901180203 | 90 | 44 | 6.0 | 10.0 | 0.00 | 0.00 | 0.00 | 65 | 1009.1 |
| 20260901180105 | 90 | 4 | 5.0 | 12.0 | 0.00 | 0.00 | 0.00 | 65 | 1009.1 |
| 20260901180003 | 90 | 14 | 5.0 | 12.0 | 0.00 | 0.00 | 0.00 | 66 | 1009.1 |
| 20260901175902 | 89 | 343 | 4.0 | 12.0 | 0.00 | 0.00 | 0.00 | 66 | 1009.1 |
| 20260901175803 | 89 | 340 | 5.0 | 12.0 | 0.00 | 0.00 | 0.00 | 66 | 1009.1 |
| 20260901175704 | 89 | 78 | 4.0 | 12.0 | 0.00 | 0.00 | 0.00 | 66 | 1009.2 |
| 20260901175604 | 89 | 4 | 4.0 | 12.0 | 0.00 | 0.00 | 0.00 | 65 | 1009.1 |
| 20260901175503 | 89 | 0 | 5.0 | 12.0 | 0.00 | 0.00 | 0.00 | 65 | 1009.2 |
| 20260901175403 | 89 | 333 | 7.0 | 12.0 | 0.00 | 0.00 | 0.00 | 65 | 1009.2 |
| 20260901175305 | 89 | 0 | 8.0 | 12.0 | 0.00 | 0.00 | 0.00 | 65 | 1009.3 |
| 20260901175202 | 89 | 0 | 8.0 | 12.0 | 0.00 | 0.00 | 0.00 | 65 | 1009.3 |
| 20260901175102 | 89 | 336 | 6.0 | 11.0 | 0.00 | 0.00 | 0.00 | 66 | 1009.2 |
| 20260901175004 | 89 | 25 | 4.0 | 11.0 | 0.00 | 0.00 | 0.00 | 65 | 1009.3 |
| 20260901174901 | 89 | 25 | 6.0 | 11.0 | 0.00 | 0.00 | 0.00 | 65 | 1009.3 |
| 20260901174803 | 89 | 0 | 6.0 | 11.0 | 0.00 | 0.00 | 0.00 | 65 | 1009.3 |
| 20260901174704 | 89 | 30 | 6.0 | 11.0 | 0.00 | 0.00 | 0.00 | 66 | 1009.3 |
| 20260901174602 | 89 | 35 | 6.0 | 11.0 | 0.00 | 0.00 | 0.00 | 66 | 1009.3 |
| 20260901174504 | 89 | 0 | 7.0 | 11.0 | 0.00 | 0.00 | 0.00 | 66 | 1009.4 |
| 20260901174402 | 89 | 344 | 7.0 | 11.0 | 0.00 | 0.00 | 0.00 | 66 | 1009.5 |
| 20260901174303 | 89 | 0 | 7.0 | 11.0 | 0.00 | 0.00 | 0.00 | 66 | 1009.5 |
| 20260901174203 | 89 | 0 | 6.0 | 11.0 | 0.00 | 0.00 | 0.00 | 66 | 1009.5 |
| 20260901174103 | 89 | 37 | 5.0 | 11.0 | 0.00 | 0.00 | 0.00 | 67 | 1009.4 |
| 20260901174007 | 89 | 16 | 5.0 | 11.0 | 0.00 | 0.00 | 0.00 | 67 | 1009.6 |
| 20260901173903 | 89 | 0 | 5.0 | 11.0 | 0.00 | 0.00 | 0.00 | 67 | 1009.7 |
| 20260901173802 | 89 | 4 | 6.0 | 11.0 | 0.00 | 0.00 | 0.00 | 67 | 1009.5 |
| 20260901173704 | 89 | 329 | 7.0 | 11.0 | 0.00 | 0.00 | 0.00 | 67 | 1009.6 |
| 20260901173603 | 89 | 316 | 8.0 | 11.0 | 0.00 | 0.00 | 0.00 | 67 | 1009.6 |
| 20260901173503 | 89 | 355 | 7.0 | 11.0 | 0.00 | 0.00 | 0.00 | 68 | 1009.7 |
| 20260901173403 | 89 | 18 | 6.0 | 11.0 | 0.00 | 0.00 | 0.00 | 68 | 1009.7 |
| 20260901173303 | 89 | 0 | 6.0 | 11.0 | 0.00 | 0.00 | 0.00 | 68 | 1009.7 |
| 20260901173202 | 89 | 343 | 6.0 | 11.0 | 0.00 | 0.00 | 0.00 | 68 | 1009.7 |
| 20260901173102 | 89 | 344 | 5.0 | 11.0 | 0.00 | 0.00 | 0.00 | 68 | 1009.7 |
| 20260901173002 | 89 | 7 | 5.0 | 11.0 | 0.00 | 0.00 | 0.00 | 68 | 1009.7 |
| 20260901172903 | 88 | 4 | 5.0 | 11.0 | 0.00 | 0.00 | 0.00 | 69 | 1009.8 |
| 20260901172804 | 88 | 358 | 6.0 | 11.0 | 0.00 | 0.00 | 0.00 | 69 | 1009.7 |
| 20260901172702 | 88 | 66 | 6.0 | 11.0 | 0.00 | 0.00 | 0.00 | 69 | 1009.8 |
| 20260901172602 | 88 | 353 | 8.0 | 11.0 | 0.00 | 0.00 | 0.00 | 69 | 1009.8 |
| 20260901172505 | 88 | 0 | 7.0 | 11.0 | 0.00 | 0.00 | 0.00 | 69 | 1009.8 |
| 20260901172403 | 88 | 336 | 7.0 | 11.0 | 0.00 | 0.00 | 0.00 | 70 | 1009.8 |
| 20260901172304 | 88 | 0 | 7.0 | 11.0 | 0.00 | 0.00 | 0.00 | 70 | 1009.8 |
| 20260901172202 | 88 | 355 | 6.0 | 12.0 | 0.00 | 0.00 | 0.00 | 70 | 1009.8 |
| 20260901172101 | 88 | 314 | 6.0 | 12.0 | 0.00 | 0.00 | 0.00 | 71 | 1009.8 |
| 20260901172001 | 88 | 30 | 6.0 | 12.0 | 0.00 | 0.00 | 0.00 | 70 | 1009.9 |
| 20260901171859 | 88 | 341 | 5.0 | 12.0 | 0.00 | 0.00 | 0.00 | 71 | 1009.9 |
| 20260901171755 | 88 | 0 | 6.0 | 12.0 | 0.00 | 0.00 | 0.00 | 71 | 1009.9 |
| 20260901171654 | 88 | 0 | 6.0 | 12.0 | 0.00 | 0.00 | 0.00 | 71 | 1009.9 |
| 20260901171551 | 88 | 0 | 6.0 | 12.0 | 0.00 | 0.00 | 0.00 | 71 | 1010.0 |
| 20260901171448 | 88 | 0 | 8.0 | 12.0 | 0.00 | 0.00 | 0.00 | 71 | 1010.0 |
| 20260901171341 | 88 | 3 | 7.0 | 12.0 | 0.00 | 0.00 | 0.00 | 71 | 1010.1 |
| 20260901171238 | 88 | 353 | 5.0 | 10.0 | 0.00 | 0.00 | 0.00 | 70 | 1010.1 |
| 20260901171133 | 87 | 330 | 5.0 | 10.0 | 0.00 | 0.00 | 0.00 | 70 | 1010.0 |
| 20260901171032 | 87 | 0 | 5.0 | 10.0 | 0.00 | 0.00 | 0.00 | 71 | 1010.1 |
| 20260901170931 | 88 | 357 | 6.0 | 10.0 | 0.00 | 0.00 | 0.00 | 71 | 1010.2 |
| 20260901170830 | 88 | 14 | 6.0 | 12.0 | 0.00 | 0.00 | 0.00 | 71 | 1010.1 |
| 20260901170731 | 88 | 11 | 6.0 | 12.0 | 0.00 | 0.00 | 0.00 | 71 | 1010.1 |
| 20260901170633 | 88 | 348 | 7.0 | 12.0 | 0.00 | 0.00 | 0.00 | 71 | 1010.2 |
| 20260901170532 | 88 | 350 | 6.0 | 12.0 | 0.00 | 0.00 | 0.00 | 71 | 1010.2 |
| 20260901170432 | 88 | 357 | 5.0 | 12.0 | 0.00 | 0.00 | 0.00 | 71 | 1010.2 |
| 20260901170332 | 88 | 20 | 6.0 | 12.0 | 0.00 | 0.00 | 0.00 | 71 | 1010.2 |
| 20260901170231 | 88 | 32 | 7.0 | 12.0 | 0.00 | 0.00 | 0.00 | 71 | 1010.3 |
| 20260901170131 | 88 | 341 | 8.0 | 12.0 | 0.00 | 0.00 | 0.00 | 70 | 1010.2 |
| 20260901170032 | 88 | 334 | 8.0 | 12.0 | 0.00 | 0.00 | 0.00 | 70 | 1010.1 |
| 20260901165932 | 88 | 340 | 7.0 | 12.0 | 0.00 | 0.00 | 0.00 | 70 | 1010.2 |
| 20260901165830 | 88 | 21 | 7.0 | 11.0 | 0.00 | 0.00 | 0.00 | 70 | 1010.2 |
| 20260901165731 | 88 | 0 | 6.0 | 11.0 | 0.00 | 0.00 | 0.00 | 71 | 1010.2 |
| 20260901165632 | 88 | 14 | 6.0 | 11.0 | 0.00 | 0.00 | 0.00 | 71 | 1010.1 |
| 20260901165531 | 88 | 0 | 8.0 | 11.0 | 0.00 | 0.00 | 0.00 | 71 | 1010.2 |
| 20260901165430 | 88 | 331 | 8.0 | 11.0 | 0.00 | 0.00 | 0.00 | 71 | 1010.2 |
| 20260901165332 | 87 | 303 | 8.0 | 11.0 | 0.00 | 0.00 | 0.00 | 70 | 1010.2 |
| 20260901165232 | 88 | 338 | 8.0 | 11.0 | 0.00 | 0.00 | 0.00 | 70 | 1010.2 |
| 20260901165131 | 87 | 4 | 8.0 | 11.0 | 0.00 | 0.00 | 0.00 | 71 | 1010.2 |
| 20260901165031 | 88 | 329 | 7.0 | 11.0 | 0.00 | 0.00 | 0.00 | 71 | 1010.2 |
| 20260901164932 | 88 | 0 | 6.0 | 11.0 | 0.00 | 0.00 | 0.00 | 72 | 1010.2 |
| 20260901164831 | 88 | 13 | 8.0 | 11.0 | 0.00 | 0.00 | 0.00 | 72 | 1010.2 |
| 20260901164730 | 88 | 8 | 8.0 | 11.0 | 0.00 | 0.00 | 0.00 | 72 | 1010.3 |
| 20260901164632 | 87 | 0 | 6.0 | 10.0 | 0.00 | 0.00 | 0.00 | 72 | 1010.2 |
| 20260901164532 | 87 | 333 | 4.0 | 10.0 | 0.00 | 0.00 | 0.00 | 72 | 1010.1 |
| 20260901164431 | 87 | 358 | 5.0 | 10.0 | 0.00 | 0.00 | 0.00 | 72 | 1010.2 |
| 20260901164331 | 87 | 340 | 7.0 | 10.0 | 0.00 | 0.00 | 0.00 | 72 | 1010.2 |
| 20260901164231 | 87 | 331 | 7.0 | 10.0 | 0.00 | 0.00 | 0.00 | 72 | 1010.1 |
| 20260901164132 | 87 | 345 | 5.0 | 10.0 | 0.00 | 0.00 | 0.00 | 72 | 1010.2 |
| 20260901164031 | 87 | 333 | 5.0 | 10.0 | 0.00 | 0.00 | 0.00 | 72 | 1010.1 |
| 20260901163931 | 87 | 0 | 7.0 | 10.0 | 0.00 | 0.00 | 0.00 | 72 | 1010.2 |
| 20260901163833 | 87 | 351 | 8.0 | 10.0 | 0.00 | 0.00 | 0.00 | 72 | 1010.1 |
| 20260901163731 | 88 | 338 | 6.0 | 10.0 | 0.00 | 0.00 | 0.00 | 73 | 1010.1 |
| 20260901163632 | 87 | 350 | 5.0 | 10.0 | 0.00 | 0.00 | 0.00 | 73 | 1010.2 |
| 20260901163533 | 87 | 25 | 6.0 | 10.0 | 0.00 | 0.00 | 0.00 | 74 | 1010.1 |
| 20260901163429 | 87 | 340 | 6.0 | 10.0 | 0.00 | 0.00 | 0.00 | 74 | 1010.1 |
| 20260901163327 | 87 | 314 | 4.0 | 10.0 | 0.00 | 0.00 | 0.00 | 74 | 1010.2 |
| 20260901163228 | 87 | 327 | 4.0 | 10.0 | 0.00 | 0.00 | 0.00 | 74 | 1010.1 |
| 20260901163128 | 87 | 334 | 5.0 | 10.0 | 0.00 | 0.00 | 0.00 | 74 | 1010.1 |
| 20260901163028 | 87 | 299 | 6.0 | 10.0 | 0.00 | 0.00 | 0.00 | 74 | 1010.2 |
| 20260901162928 | 87 | 310 | 5.0 | 10.0 | 0.00 | 0.00 | 0.00 | 74 | 1010.1 |
| 20260901162827 | 87 | 305 | 6.0 | 10.0 | 0.00 | 0.00 | 0.00 | 74 | 1010.2 |
| 20260901162728 | 87 | 348 | 7.0 | 10.0 | 0.00 | 0.00 | 0.00 | 75 | 1010.1 |
| 20260901162627 | 87 | 354 | 6.0 | 10.0 | 0.00 | 0.00 | 0.00 | 75 | 1010.1 |
| 20260901162526 | 87 | 300 | 6.0 | 10.0 | 0.00 | 0.00 | 0.00 | 75 | 1010.2 |
| 20260901162428 | 87 | 282 | 7.0 | 10.0 | 0.00 | 0.00 | 0.00 | 75 | 1010.2 |
| 20260901162327 | 87 | 313 | 6.0 | 10.0 | 0.00 | 0.00 | 0.00 | 75 | 1010.2 |
| 20260901162228 | 87 | 348 | 5.0 | 10.0 | 0.00 | 0.00 | 0.00 | 75 | 1010.2 |
| 20260901162128 | 87 | 313 | 5.0 | 10.0 | 0.00 | 0.00 | 0.00 | 75 | 1010.2 |
| 20260901162027 | 86 | 340 | 7.0 | 10.0 | 0.00 | 0.00 | 0.00 | 75 | 1010.2 |
| 20260901161927 | 86 | 307 | 7.0 | 10.0 | 0.00 | 0.00 | 0.00 | 75 | 1010.2 |
| 20260901161827 | 87 | 312 | 6.0 | 10.0 | 0.00 | 0.00 | 0.00 | 76 | 1010.2 |
| 20260901161727 | 86 | 293 | 6.0 | 10.0 | 0.00 | 0.00 | 0.00 | 76 | 1010.2 |
| 20260901161627 | 86 | 295 | 6.0 | 10.0 | 0.00 | 0.00 | 0.00 | 75 | 1010.1 |
| 20260901161528 | 86 | 324 | 6.0 | 10.0 | 0.00 | 0.00 | 0.00 | 75 | 1010.2 |
| 20260901161426 | 87 | 321 | 4.0 | 7.0 | 0.00 | 0.00 | 0.00 | 76 | 1010.2 |
| 20260901161326 | 86 | 296 | 5.0 | 7.0 | 0.00 | 0.00 | 0.00 | 75 | 1010.2 |
| 20260901161227 | 87 | 309 | 6.0 | 7.0 | 0.00 | 0.00 | 0.00 | 75 | 1010.2 |
| 20260901161126 | 87 | 305 | 4.0 | 9.0 | 0.00 | 0.00 | 0.00 | 75 | 1010.2 |
| 20260901161028 | 87 | 348 | 4.0 | 9.0 | 0.00 | 0.00 | 0.00 | 75 | 1010.2 |
| 20260901160928 | 86 | 350 | 4.0 | 9.0 | 0.00 | 0.00 | 0.00 | 75 | 1010.2 |
| 20260901160827 | 86 | 331 | 5.0 | 9.0 | 0.00 | 0.00 | 0.00 | 76 | 1010.2 |
| 20260901160726 | 86 | 348 | 5.0 | 9.0 | 0.00 | 0.00 | 0.00 | 76 | 1010.2 |
| 20260901160625 | 86 | 0 | 5.0 | 9.0 | 0.00 | 0.00 | 0.00 | 76 | 1010.3 |
| 20260901160526 | 86 | 353 | 6.0 | 9.0 | 0.00 | 0.00 | 0.00 | 76 | 1010.2 |
| 20260901160426 | 86 | 331 | 6.0 | 9.0 | 0.00 | 0.00 | 0.00 | 76 | 1010.2 |
| 20260901160325 | 86 | 333 | 6.0 | 9.0 | 0.00 | 0.00 | 0.00 | 76 | 1010.2 |
| 20260901160227 | 86 | 344 | 5.0 | 9.0 | 0.00 | 0.00 | 0.00 | 76 | 1010.2 |
| 20260901160127 | 86 | 314 | 5.0 | 9.0 | 0.00 | 0.00 | 0.00 | 76 | 1010.1 |
| 20260901160028 | 86 | 303 | 5.0 | 9.0 | 0.00 | 0.00 | 0.00 | 76 | 1010.1 |
| 20260901155926 | 86 | 327 | 5.0 | 9.0 | 0.00 | 0.00 | 0.00 | 77 | 1010.1 |
| 20260901155827 | 86 | 298 | 6.0 | 9.0 | 0.00 | 0.00 | 0.00 | 76 | 1010.1 |
| 20260901155726 | 86 | 334 | 6.0 | 9.0 | 0.00 | 0.00 | 0.00 | 77 | 1010.1 |
| 20260901155628 | 86 | 317 | 6.0 | 9.0 | 0.00 | 0.00 | 0.00 | 77 | 1010.1 |
| 20260901155527 | 86 | 355 | 5.0 | 9.0 | 0.00 | 0.00 | 0.00 | 77 | 1010.1 |
| 20260901155427 | 86 | 330 | 5.0 | 9.0 | 0.00 | 0.00 | 0.00 | 77 | 1010.1 |
| 20260901155327 | 86 | 343 | 4.0 | 9.0 | 0.00 | 0.00 | 0.00 | 77 | 1010.1 |
| 20260901155227 | 86 | 336 | 4.0 | 9.0 | 0.00 | 0.00 | 0.00 | 78 | 1010.0 |
| 20260901155126 | 85 | 347 | 4.0 | 9.0 | 0.00 | 0.00 | 0.00 | 78 | 1010.0 |
| 20260901155025 | 85 | 334 | 5.0 | 9.0 | 0.00 | 0.00 | 0.00 | 78 | 1010.0 |
| 20260901154926 | 85 | 321 | 6.0 | 9.0 | 0.00 | 0.00 | 0.00 | 79 | 1010.1 |
| 20260901154827 | 85 | 336 | 5.0 | 9.0 | 0.00 | 0.00 | 0.00 | 79 | 1010.1 |
| 20260901154725 | 85 | 305 | 4.0 | 6.0 | 0.00 | 0.00 | 0.00 | 79 | 1010.0 |
| 20260901154626 | 85 | 289 | 4.0 | 9.0 | 0.00 | 0.00 | 0.00 | 79 | 1010.0 |
| 20260901154525 | 85 | 281 | 4.0 | 9.0 | 0.00 | 0.00 | 0.00 | 79 | 1010.0 |
| 20260901154425 | 85 | 307 | 4.0 | 9.0 | 0.00 | 0.00 | 0.00 | 80 | 1010.0 |
| 20260901154326 | 85 | 293 | 4.0 | 9.0 | 0.00 | 0.00 | 0.00 | 80 | 1010.0 |
| 20260901154226 | 85 | 341 | 5.0 | 9.0 | 0.00 | 0.00 | 0.00 | 80 | 1010.0 |
| 20260901154126 | 85 | 319 | 5.0 | 9.0 | 0.00 | 0.00 | 0.00 | 80 | 1010.0 |
| 20260901154027 | 85 | 327 | 5.0 | 9.0 | 0.00 | 0.00 | 0.00 | 80 | 1010.1 |
| 20260901153926 | 85 | 358 | 4.0 | 9.0 | 0.00 | 0.00 | 0.00 | 80 | 1010.2 |
| 20260901153825 | 85 | 313 | 4.0 | 9.0 | 0.00 | 0.00 | 0.00 | 80 | 1010.2 |
| 20260901153725 | 84 | 279 | 4.0 | 9.0 | 0.00 | 0.00 | 0.00 | 80 | 1010.2 |
| 20260901153627 | 84 | 300 | 3.0 | 9.0 | 0.00 | 0.00 | 0.00 | 80 | 1010.2 |
| 20260901153526 | 84 | 295 | 4.0 | 9.0 | 0.00 | 0.00 | 0.00 | 80 | 1010.1 |
| 20260901153427 | 84 | 295 | 4.0 | 10.0 | 0.00 | 0.00 | 0.00 | 80 | 1010.2 |
| 20260901153327 | 84 | 303 | 5.0 | 10.0 | 0.00 | 0.00 | 0.00 | 82 | 1010.3 |
| 20260901153226 | 84 | 305 | 4.0 | 10.0 | 0.00 | 0.00 | 0.00 | 82 | 1010.2 |
| 20260901153126 | 84 | 309 | 5.0 | 10.0 | 0.00 | 0.00 | 0.00 | 82 | 1010.2 |
| 20260901153025 | 84 | 312 | 6.0 | 10.0 | 0.00 | 0.00 | 0.00 | 82 | 1010.2 |
| 20260901152927 | 83 | 276 | 4.0 | 10.0 | 0.00 | 0.00 | 0.00 | 83 | 1010.2 |
| 20260901152827 | 83 | 298 | 3.0 | 10.0 | 0.00 | 0.00 | 0.00 | 82 | 1010.2 |
| 20260901152725 | 83 | 305 | 3.0 | 10.0 | 0.00 | 0.00 | 0.00 | 82 | 1010.1 |
| 20260901152625 | 83 | 309 | 6.0 | 10.0 | 0.00 | 0.00 | 0.00 | 83 | 1010.1 |
| 20260901152526 | 83 | 348 | 4.0 | 10.0 | 0.00 | 0.00 | 0.00 | 83 | 1010.3 |
| 20260901152426 | 83 | 341 | 3.0 | 5.0 | 0.00 | 0.00 | 0.00 | 83 | 1010.2 |
| 20260901152325 | 83 | 317 | 4.0 | 5.0 | 0.00 | 0.00 | 0.00 | 83 | 1010.2 |
| 20260901152227 | 83 | 351 | 4.0 | 6.0 | 0.00 | 0.00 | 0.00 | 83 | 1010.2 |
| 20260901152126 | 83 | 333 | 4.0 | 6.0 | 0.00 | 0.00 | 0.00 | 84 | 1010.2 |
| 20260901152027 | 83 | 298 | 3.0 | 6.0 | 0.00 | 0.00 | 0.00 | 84 | 1010.2 |
| 20260901151926 | 83 | 298 | 3.0 | 6.0 | 0.00 | 0.00 | 0.00 | 84 | 1010.1 |
| 20260901151826 | 83 | 288 | 4.0 | 6.0 | 0.00 | 0.00 | 0.00 | 84 | 1010.2 |
| 20260901151726 | 83 | 288 | 4.0 | 6.0 | 0.00 | 0.00 | 0.00 | 84 | 1010.1 |
| 20260901151627 | 83 | 288 | 4.0 | 6.0 | 0.00 | 0.00 | 0.00 | 84 | 1010.2 |
| 20260901151526 | 83 | 309 | 4.0 | 7.0 | 0.00 | 0.00 | 0.00 | 84 | 1010.1 |
| 20260901151424 | 83 | 336 | 5.0 | 7.0 | 0.00 | 0.00 | 0.00 | 84 | 1010.1 |
| 20260901151326 | 83 | 290 | 4.0 | 7.0 | 0.00 | 0.00 | 0.00 | 84 | 1010.1 |
| 20260901151226 | 83 | 276 | 4.0 | 7.0 | 0.00 | 0.00 | 0.00 | 84 | 1010.1 |
| 20260901151126 | 83 | 272 | 4.0 | 7.0 | 0.00 | 0.00 | 0.00 | 84 | 1010.1 |
| 20260901151026 | 83 | 283 | 5.0 | 7.0 | 0.00 | 0.00 | 0.00 | 84 | 1010.1 |
| 20260901150925 | 83 | 285 | 5.0 | 7.0 | 0.00 | 0.00 | 0.00 | 84 | 1010.1 |
| 20260901150827 | 83 | 282 | 5.0 | 7.0 | 0.00 | 0.00 | 0.00 | 84 | 1010.1 |
| 20260901150724 | 83 | 259 | 6.0 | 7.0 | 0.00 | 0.00 | 0.00 | 84 | 1010.2 |
| 20260901150626 | 83 | 286 | 5.0 | 7.0 | 0.00 | 0.00 | 0.00 | 84 | 1010.1 |
| 20260901150525 | 83 | 272 | 4.0 | 6.0 | 0.00 | 0.00 | 0.00 | 84 | 1010.1 |
| 20260901150426 | 82 | 289 | 3.0 | 6.0 | 0.00 | 0.00 | 0.00 | 84 | 1010.1 |
| 20260901150326 | 82 | 269 | 4.0 | 6.0 | 0.00 | 0.00 | 0.00 | 84 | 1010.2 |
| 20260901150225 | 83 | 276 | 4.0 | 6.0 | 0.00 | 0.00 | 0.00 | 84 | 1010.1 |
| 20260901150126 | 83 | 271 | 4.0 | 6.0 | 0.00 | 0.00 | 0.00 | 84 | 1010.1 |
| 20260901150025 | 82 | 285 | 5.0 | 6.0 | 0.00 | 0.00 | 0.00 | 84 | 1010.2 |
| 20260901145926 | 82 | 272 | 5.0 | 6.0 | 0.00 | 0.00 | 0.00 | 84 | 1010.3 |
| 20260901145824 | 82 | 274 | 4.0 | 6.0 | 0.00 | 0.00 | 0.00 | 84 | 1010.2 |
| 20260901145726 | 83 | 300 | 5.0 | 6.0 | 0.00 | 0.00 | 0.00 | 85 | 1010.3 |
| 20260901145624 | 83 | 264 | 4.0 | 6.0 | 0.00 | 0.00 | 0.00 | 84 | 1010.3 |
| 20260901145524 | 82 | 272 | 3.0 | 5.0 | 0.00 | 0.00 | 0.00 | 84 | 1010.3 |
| 20260901145426 | 83 | 290 | 4.0 | 5.0 | 0.00 | 0.00 | 0.00 | 84 | 1010.4 |
| 20260901145327 | 83 | 307 | 4.0 | 5.0 | 0.00 | 0.00 | 0.00 | 84 | 1010.4 |
| 20260901145225 | 83 | 312 | 2.0 | 4.0 | 0.00 | 0.00 | 0.00 | 84 | 1010.3 |
| 20260901145126 | 83 | 358 | 1.0 | 4.0 | 0.00 | 0.00 | 0.00 | 84 | 1010.4 |
| 20260901145025 | 83 | 0 | 2.0 | 4.0 | 0.00 | 0.00 | 0.00 | 85 | 1010.4 |
| 20260901144925 | 82 | 0 | 2.0 | 4.0 | 0.00 | 0.00 | 0.00 | 85 | 1010.5 |
| 20260901144824 | 82 | 331 | 2.0 | 4.0 | 0.00 | 0.00 | 0.00 | 85 | 1010.5 |
| 20260901144724 | 82 | 334 | 2.0 | 4.0 | 0.00 | 0.00 | 0.00 | 86 | 1010.4 |
| 20260901144625 | 82 | 333 | 2.0 | 4.0 | 0.00 | 0.00 | 0.00 | 86 | 1010.5 |
| 20260901144527 | 82 | 333 | 2.0 | 4.0 | 0.00 | 0.00 | 0.00 | 85 | 1010.4 |
| 20260901144425 | 82 | 333 | 2.0 | 4.0 | 0.00 | 0.00 | 0.00 | 85 | 1010.4 |
| 20260901144324 | 82 | 326 | 2.0 | 4.0 | 0.00 | 0.00 | 0.00 | 85 | 1010.4 |
| 20260901144225 | 82 | 324 | 3.0 | 4.0 | 0.00 | 0.00 | 0.00 | 85 | 1010.4 |
| 20260901144124 | 82 | 337 | 3.0 | 4.0 | 0.00 | 0.00 | 0.00 | 85 | 1010.3 |
| 20260901144024 | 82 | 293 | 3.0 | 4.0 | 0.00 | 0.00 | 0.00 | 85 | 1010.4 |
| 20260901143926 | 82 | 290 | 3.0 | 4.0 | 0.00 | 0.00 | 0.00 | 85 | 1010.4 |
| 20260901143824 | 82 | 292 | 3.0 | 4.0 | 0.00 | 0.00 | 0.00 | 85 | 1010.3 |
| 20260901143724 | 82 | 293 | 3.0 | 5.0 | 0.00 | 0.00 | 0.00 | 85 | 1010.3 |
| 20260901143623 | 82 | 281 | 3.0 | 5.0 | 0.00 | 0.00 | 0.00 | 85 | 1010.3 |
| 20260901143525 | 82 | 305 | 3.0 | 5.0 | 0.00 | 0.00 | 0.00 | 85 | 1010.3 |
| 20260901143425 | 82 | 340 | 2.0 | 5.0 | 0.00 | 0.00 | 0.00 | 85 | 1010.3 |
| 20260901143326 | 82 | 8 | 2.0 | 5.0 | 0.00 | 0.00 | 0.00 | 85 | 1010.3 |
| 20260901143224 | 82 | 8 | 2.0 | 5.0 | 0.00 | 0.00 | 0.00 | 85 | 1010.3 |
| 20260901143125 | 82 | 16 | 2.0 | 5.0 | 0.00 | 0.00 | 0.00 | 85 | 1010.3 |
| 20260901143027 | 82 | 0 | 2.0 | 5.0 | 0.00 | 0.00 | 0.00 | 86 | 1010.3 |
| 20260901142924 | 82 | 353 | 3.0 | 5.0 | 0.00 | 0.00 | 0.00 | 86 | 1010.3 |
| 20260901142825 | 82 | 350 | 3.0 | 4.0 | 0.00 | 0.00 | 0.00 | 86 | 1010.4 |
| 20260901142726 | 82 | 331 | 2.0 | 4.0 | 0.00 | 0.00 | 0.00 | 86 | 1010.4 |
| 20260901142625 | 82 | 323 | 2.0 | 4.0 | 0.00 | 0.00 | 0.00 | 86 | 1010.3 |
| 20260901142525 | 82 | 323 | 2.0 | 4.0 | 0.00 | 0.00 | 0.00 | 86 | 1010.3 |
| 20260901142426 | 82 | 323 | 2.0 | 4.0 | 0.00 | 0.00 | 0.00 | 86 | 1010.3 |
| 20260901142323 | 81 | 324 | 3.0 | 4.0 | 0.00 | 0.00 | 0.00 | 86 | 1010.3 |
| 20260901142224 | 82 | 344 | 4.0 | 4.0 | 0.00 | 0.00 | 0.00 | 86 | 1010.3 |
| 20260901142124 | 82 | 319 | 3.0 | 4.0 | 0.00 | 0.00 | 0.00 | 86 | 1010.3 |
| 20260901142025 | 82 | 357 | 3.0 | 4.0 | 0.00 | 0.00 | 0.00 | 86 | 1010.3 |
| 20260901141924 | 82 | 0 | 2.0 | 4.0 | 0.00 | 0.00 | 0.00 | 86 | 1010.3 |
| 20260901141823 | 82 | 0 | 1.0 | 4.0 | 0.00 | 0.00 | 0.00 | 86 | 1010.3 |
| 20260901141726 | 82 | 20 | 2.0 | 4.0 | 0.00 | 0.00 | 0.00 | 86 | 1010.3 |
| 20260901141623 | 82 | 20 | 2.0 | 4.0 | 0.00 | 0.00 | 0.00 | 86 | 1010.3 |
| 20260901141523 | 82 | 21 | 2.0 | 4.0 | 0.00 | 0.00 | 0.00 | 86 | 1010.3 |
| 20260901141424 | 82 | 21 | 1.0 | 4.0 | 0.00 | 0.00 | 0.00 | 86 | 1010.3 |
| 20260901141323 | 82 | 18 | 2.0 | 4.0 | 0.00 | 0.00 | 0.00 | 86 | 1010.3 |
| 20260901141223 | 82 | 16 | 3.0 | 4.0 | 0.00 | 0.00 | 0.00 | 86 | 1010.3 |
| 20260901141125 | 82 | 18 | 2.0 | 4.0 | 0.00 | 0.00 | 0.00 | 86 | 1010.3 |
| 20260901141024 | 82 | 0 | 2.0 | 4.0 | 0.00 | 0.00 | 0.00 | 86 | 1010.4 |
| 20260901140925 | 81 | 1 | 2.0 | 4.0 | 0.00 | 0.00 | 0.00 | 86 | 1010.4 |
| 20260901140825 | 81 | 0 | 2.0 | 4.0 | 0.00 | 0.00 | 0.00 | 86 | 1010.4 |
| 20260901140725 | 81 | 1 | 2.0 | 4.0 | 0.00 | 0.00 | 0.00 | 86 | 1010.4 |
| 20260901140623 | 81 | 3 | 2.0 | 4.0 | 0.00 | 0.00 | 0.00 | 86 | 1010.5 |
| 20260901140524 | 81 | 3 | 2.0 | 4.0 | 0.00 | 0.00 | 0.00 | 86 | 1010.5 |
| 20260901140424 | 81 | 4 | 2.0 | 4.0 | 0.00 | 0.00 | 0.00 | 86 | 1010.5 |
| 20260901140323 | 81 | 6 | 2.0 | 4.0 | 0.00 | 0.00 | 0.00 | 86 | 1010.5 |
| 20260901140225 | 81 | 8 | 3.0 | 4.0 | 0.00 | 0.00 | 0.00 | 86 | 1010.5 |
| 20260901140123 | 81 | 0 | 3.0 | 4.0 | 0.00 | 0.00 | 0.00 | 86 | 1010.5 |
| 20260901140025 | 81 | 0 | 2.0 | 4.0 | 0.00 | 0.00 | 0.00 | 86 | 1010.5 |
| 20260901135924 | 81 | 0 | 2.0 | 4.0 | 0.00 | 0.00 | 0.00 | 86 | 1010.5 |
| 20260901135824 | 81 | 0 | 2.0 | 4.0 | 0.00 | 0.00 | 0.00 | 86 | 1010.5 |
| 20260901135725 | 81 | 0 | 2.0 | 4.0 | 0.00 | 0.00 | 0.00 | 86 | 1010.5 |
| 20260901135624 | 81 | 0 | 2.0 | 5.0 | 0.00 | 0.00 | 0.00 | 86 | 1010.5 |
| 20260901135524 | 81 | 0 | 2.0 | 5.0 | 0.00 | 0.00 | 0.00 | 86 | 1010.5 |
| 20260901135417 | 81 | 0 | 3.0 | 5.0 | 0.00 | 0.00 | 0.00 | 86 | 1010.4 |
| 20260901135311 | 81 | 0 | 3.0 | 5.0 | 0.00 | 0.00 | 0.00 | 86 | 1010.5 |
| 20260901135204 | 81 | 0 | 3.0 | 5.0 | 0.00 | 0.00 | 0.00 | 86 | 1010.4 |
| 20260901135103 | 81 | 0 | 3.0 | 5.0 | 0.00 | 0.00 | 0.00 | 86 | 1010.5 |
| 20260901135002 | 81 | 0 | 2.0 | 5.0 | 0.00 | 0.00 | 0.00 | 87 | 1010.5 |
| 20260901134903 | 81 | 0 | 2.0 | 5.0 | 0.00 | 0.00 | 0.00 | 87 | 1010.5 |
| 20260901134803 | 81 | 0 | 3.0 | 5.0 | 0.00 | 0.00 | 0.00 | 87 | 1010.5 |
| 20260901134702 | 81 | 0 | 3.0 | 5.0 | 0.00 | 0.00 | 0.00 | 87 | 1010.5 |
| 20260901134604 | 81 | 0 | 2.0 | 5.0 | 0.00 | 0.00 | 0.00 | 87 | 1010.5 |
| 20260901134505 | 81 | 355 | 2.0 | 5.0 | 0.00 | 0.00 | 0.00 | 87 | 1010.5 |
| 20260901134402 | 81 | 355 | 3.0 | 5.0 | 0.00 | 0.00 | 0.00 | 87 | 1010.5 |
| 20260901134303 | 81 | 357 | 3.0 | 5.0 | 0.00 | 0.00 | 0.00 | 87 | 1010.5 |
| 20260901134203 | 81 | 357 | 3.0 | 5.0 | 0.00 | 0.00 | 0.00 | 87 | 1010.4 |
| 20260901134103 | 81 | 0 | 3.0 | 6.0 | 0.00 | 0.00 | 0.00 | 88 | 1010.4 |
| 20260901134002 | 80 | 353 | 3.0 | 6.0 | 0.00 | 0.00 | 0.00 | 87 | 1010.5 |
| 20260901133902 | 80 | 347 | 3.0 | 6.0 | 0.00 | 0.00 | 0.00 | 87 | 1010.5 |
| 20260901133804 | 80 | 343 | 4.0 | 6.0 | 0.00 | 0.00 | 0.00 | 88 | 1010.4 |
| 20260901133703 | 80 | 344 | 4.0 | 6.0 | 0.00 | 0.00 | 0.00 | 88 | 1010.4 |
| 20260901133603 | 80 | 343 | 4.0 | 6.0 | 0.00 | 0.00 | 0.00 | 88 | 1010.4 |
| 20260901133505 | 80 | 353 | 4.0 | 6.0 | 0.00 | 0.00 | 0.00 | 88 | 1010.4 |
| 20260901133404 | 80 | 321 | 4.0 | 6.0 | 0.00 | 0.00 | 0.00 | 88 | 1010.3 |
| 20260901133304 | 80 | 321 | 4.0 | 6.0 | 0.00 | 0.00 | 0.00 | 88 | 1010.3 |
| 20260901133203 | 80 | 314 | 4.0 | 6.0 | 0.00 | 0.00 | 0.00 | 88 | 1010.3 |
| 20260901133103 | 80 | 320 | 3.0 | 5.0 | 0.00 | 0.00 | 0.00 | 88 | 1010.3 |
| 20260901133004 | 80 | 334 | 3.0 | 4.0 | 0.00 | 0.00 | 0.00 | 88 | 1010.3 |
| 20260901132903 | 80 | 329 | 3.0 | 4.0 | 0.00 | 0.00 | 0.00 | 88 | 1010.2 |
| 20260901132802 | 80 | 338 | 3.0 | 4.0 | 0.00 | 0.00 | 0.00 | 88 | 1010.3 |
| 20260901132701 | 80 | 337 | 3.0 | 4.0 | 0.00 | 0.00 | 0.00 | 89 | 1010.3 |
| 20260901132603 | 80 | 331 | 2.0 | 4.0 | 0.00 | 0.00 | 0.00 | 89 | 1010.2 |
| 20260901132503 | 80 | 321 | 2.0 | 4.0 | 0.00 | 0.00 | 0.00 | 89 | 1010.2 |
| 20260901132404 | 80 | 338 | 2.0 | 4.0 | 0.00 | 0.00 | 0.00 | 89 | 1010.2 |
| 20260901132307 | 80 | 340 | 2.0 | 4.0 | 0.00 | 0.00 | 0.00 | 89 | 1010.3 |
| 20260901132201 | 80 | 341 | 2.0 | 4.0 | 0.00 | 0.00 | 0.00 | 89 | 1010.3 |
| 20260901132104 | 80 | 341 | 2.0 | 4.0 | 0.00 | 0.00 | 0.00 | 89 | 1010.2 |
| 20260901132002 | 80 | 345 | 2.0 | 4.0 | 0.00 | 0.00 | 0.00 | 89 | 1010.2 |
| 20260901131903 | 80 | 354 | 3.0 | 4.0 | 0.00 | 0.00 | 0.00 | 89 | 1010.2 |
| 20260901131804 | 80 | 0 | 3.0 | 4.0 | 0.00 | 0.00 | 0.00 | 89 | 1010.2 |
| 20260901131702 | 80 | 0 | 2.0 | 4.0 | 0.00 | 0.00 | 0.00 | 89 | 1010.3 |
| 20260901131602 | 80 | 0 | 2.0 | 4.0 | 0.00 | 0.00 | 0.00 | 90 | 1010.2 |
| 20260901131505 | 80 | 0 | 2.0 | 4.0 | 0.00 | 0.00 | 0.00 | 90 | 1010.2 |
| 20260901131402 | 80 | 0 | 2.0 | 4.0 | 0.00 | 0.00 | 0.00 | 90 | 1010.2 |
| 20260901131303 | 80 | 0 | 3.0 | 4.0 | 0.00 | 0.00 | 0.00 | 90 | 1010.2 |
| 20260901131204 | 80 | 0 | 3.0 | 4.0 | 0.00 | 0.00 | 0.00 | 90 | 1010.3 |
| 20260901131102 | 80 | 0 | 2.0 | 3.0 | 0.00 | 0.00 | 0.00 | 90 | 1010.2 |
| 20260901131004 | 80 | 0 | 2.0 | 3.0 | 0.00 | 0.00 | 0.00 | 90 | 1010.2 |
| 20260901130904 | 80 | 0 | 2.0 | 3.0 | 0.00 | 0.00 | 0.00 | 90 | 1010.2 |
| 20260901130803 | 79 | 0 | 2.0 | 3.0 | 0.00 | 0.00 | 0.00 | 90 | 1010.2 |
| 20260901130704 | 79 | 0 | 2.0 | 2.0 | 0.00 | 0.00 | 0.00 | 90 | 1010.3 |
| 20260901130603 | 79 | 0 | 1.0 | 2.0 | 0.00 | 0.00 | 0.00 | 90 | 1010.2 |
| 20260901130502 | 79 | 0 | 1.0 | 2.0 | 0.00 | 0.00 | 0.00 | 91 | 1010.1 |
| 20260901130403 | 79 | 0 | 1.0 | 2.0 | 0.00 | 0.00 | 0.00 | 91 | 1010.1 |
| 20260901130304 | 79 | 0 | 1.0 | 3.0 | 0.00 | 0.00 | 0.00 | 91 | 1010.1 |
| 20260901130204 | 79 | 0 | 1.0 | 3.0 | 0.00 | 0.00 | 0.00 | 91 | 1010.1 |
| 20260901130005 | 79 | 0 | 2.0 | 3.0 | 0.00 | 0.00 | 0.00 | 91 | 1010.0 |
| 20260901125903 | 79 | 0 | 2.0 | 3.0 | 0.00 | 0.00 | 0.00 | 91 | 1010.1 |
| 20260901125803 | 79 | 0 | 1.0 | 4.0 | 0.00 | 0.00 | 0.00 | 91 | 1010.1 |
| 20260901125705 | 79 | 0 | 1.0 | 4.0 | 0.00 | 0.00 | 0.00 | 91 | 1010.0 |
| 20260901125604 | 79 | 0 | 1.0 | 4.0 | 0.00 | 0.00 | 0.00 | 91 | 1010.0 |
| 20260901125504 | 79 | 0 | 2.0 | 4.0 | 0.00 | 0.00 | 0.00 | 91 | 1010.0 |
| 20260901125402 | 79 | 0 | 2.0 | 4.0 | 0.00 | 0.00 | 0.00 | 91 | 1010.1 |
| 20260901125307 | 79 | 0 | 2.0 | 4.0 | 0.00 | 0.00 | 0.00 | 91 | 1009.9 |
| 20260901125205 | 79 | 0 | 2.0 | 4.0 | 0.00 | 0.00 | 0.00 | 91 | 1009.9 |
| 20260901125102 | 79 | 0 | 2.0 | 4.0 | 0.00 | 0.00 | 0.00 | 91 | 1009.9 |
| 20260901125004 | 79 | 358 | 2.0 | 4.0 | 0.00 | 0.00 | 0.00 | 91 | 1009.9 |
| 20260901124902 | 79 | 0 | 2.0 | 4.0 | 0.00 | 0.00 | 0.00 | 91 | 1009.8 |
| 20260901124802 | 79 | 0 | 2.0 | 5.0 | 0.00 | 0.00 | 0.00 | 91 | 1009.9 |
| 20260901124704 | 79 | 0 | 2.0 | 5.0 | 0.00 | 0.00 | 0.00 | 91 | 1009.9 |
| 20260901124603 | 79 | 0 | 2.0 | 5.0 | 0.00 | 0.00 | 0.00 | 91 | 1009.9 |
| 20260901124503 | 78 | 0 | 3.0 | 5.0 | 0.00 | 0.00 | 0.00 | 91 | 1009.9 |
| 20260901124402 | 78 | 0 | 3.0 | 5.0 | 0.00 | 0.00 | 0.00 | 91 | 1009.9 |
| 20260901124303 | 78 | 0 | 2.0 | 5.0 | 0.00 | 0.00 | 0.00 | 91 | 1009.9 |
| 20260901124202 | 78 | 0 | 2.0 | 5.0 | 0.00 | 0.00 | 0.00 | 91 | 1009.9 |
| 20260901124102 | 78 | 0 | 2.0 | 5.0 | 0.00 | 0.00 | 0.00 | 91 | 1009.8 |
| 20260901124004 | 78 | 353 | 4.0 | 5.0 | 0.00 | 0.00 | 0.00 | 91 | 1009.9 |
| 20260901123902 | 78 | 0 | 4.0 | 5.0 | 0.00 | 0.00 | 0.00 | 91 | 1009.9 |
| 20260901123803 | 78 | 357 | 3.0 | 5.0 | 0.00 | 0.00 | 0.00 | 91 | 1009.8 |
| 20260901123703 | 78 | 355 | 3.0 | 5.0 | 0.00 | 0.00 | 0.00 | 91 | 1009.8 |
| 20260901123605 | 78 | 353 | 3.0 | 3.0 | 0.00 | 0.00 | 0.00 | 91 | 1009.8 |
| 20260901123503 | 78 | 354 | 3.0 | 3.0 | 0.00 | 0.00 | 0.00 | 91 | 1009.8 |
| 20260901123403 | 78 | 355 | 2.0 | 3.0 | 0.00 | 0.00 | 0.00 | 91 | 1009.8 |
| 20260901123303 | 78 | 357 | 2.0 | 3.0 | 0.00 | 0.00 | 0.00 | 91 | 1009.8 |
| 20260901123202 | 78 | 357 | 2.0 | 3.0 | 0.00 | 0.00 | 0.00 | 91 | 1009.8 |
| 20260901123103 | 78 | 358 | 1.0 | 3.0 | 0.00 | 0.00 | 0.00 | 91 | 1009.8 |
| 20260901123004 | 78 | 357 | 1.0 | 2.0 | 0.00 | 0.00 | 0.00 | 91 | 1009.8 |
| 20260901122902 | 78 | 357 | 1.0 | 2.0 | 0.00 | 0.00 | 0.00 | 91 | 1009.7 |
| 20260901122803 | 78 | 350 | 0.0 | 2.0 | 0.00 | 0.00 | 0.00 | 91 | 1009.7 |
| 20260901122703 | 78 | 350 | 0.0 | 2.0 | 0.00 | 0.00 | 0.00 | 91 | 1009.7 |
| 20260901122603 | 78 | 350 | 1.0 | 2.0 | 0.00 | 0.00 | 0.00 | 91 | 1009.8 |
| 20260901122504 | 78 | 350 | 1.0 | 2.0 | 0.00 | 0.00 | 0.00 | 91 | 1009.7 |
| 20260901122402 | 78 | 350 | 1.0 | 2.0 | 0.00 | 0.00 | 0.00 | 91 | 1009.7 |
| 20260901122306 | 78 | 350 | 1.0 | 2.0 | 0.00 | 0.00 | 0.00 | 91 | 1009.7 |
| 20260901122204 | 78 | 350 | 0.0 | 2.0 | 0.00 | 0.00 | 0.00 | 91 | 1009.6 |
| 20260901122104 | 78 | 350 | 0.0 | 2.0 | 0.00 | 0.00 | 0.00 | 91 | 1009.7 |
| 20260901122004 | 78 | 350 | 0.0 | 2.0 | 0.00 | 0.00 | 0.00 | 91 | 1009.6 |
| 20260901121903 | 78 | 350 | 1.0 | 2.0 | 0.00 | 0.00 | 0.00 | 91 | 1009.6 |
| 20260901121804 | 78 | 350 | 0.0 | 3.0 | 0.00 | 0.00 | 0.00 | 91 | 1009.6 |
| 20260901121704 | 78 | 350 | 0.0 | 3.0 | 0.00 | 0.00 | 0.00 | 91 | 1009.6 |
| 20260901121604 | 78 | 350 | 1.0 | 3.0 | 0.00 | 0.00 | 0.00 | 91 | 1009.6 |
| 20260901121503 | 78 | 350 | 1.0 | 3.0 | 0.00 | 0.00 | 0.00 | 91 | 1009.4 |
| 20260901121403 | 78 | 350 | 1.0 | 3.0 | 0.00 | 0.00 | 0.00 | 91 | 1009.5 |
| 20260901121302 | 78 | 350 | 1.0 | 3.0 | 0.00 | 0.00 | 0.00 | 91 | 1009.4 |
| 20260901121203 | 78 | 350 | 2.0 | 3.0 | 0.00 | 0.00 | 0.00 | 91 | 1009.5 |
| 20260901121103 | 78 | 350 | 2.0 | 3.0 | 0.00 | 0.00 | 0.00 | 91 | 1009.4 |
| 20260901121002 | 78 | 350 | 2.0 | 3.0 | 0.00 | 0.00 | 0.00 | 91 | 1009.4 |
| 20260901120904 | 78 | 350 | 2.0 | 3.0 | 0.00 | 0.00 | 0.00 | 91 | 1009.4 |
| 20260901120802 | 78 | 350 | 1.0 | 2.0 | 0.00 | 0.00 | 0.00 | 91 | 1009.3 |
| 20260901120704 | 78 | 350 | 2.0 | 2.0 | 0.00 | 0.00 | 0.00 | 91 | 1009.4 |
| 20260901120603 | 78 | 350 | 2.0 | 2.0 | 0.00 | 0.00 | 0.00 | 91 | 1009.4 |
| 20260901120505 | 78 | 350 | 2.0 | 2.0 | 0.00 | 0.00 | 0.00 | 91 | 1009.4 |
| 20260901120403 | 78 | 350 | 1.0 | 2.0 | 0.00 | 0.00 | 0.00 | 91 | 1009.4 |
| 20260901120302 | 78 | 350 | 1.0 | 2.0 | 0.00 | 0.00 | 0.00 | 91 | 1009.3 |
| 20260901120203 | 78 | 350 | 1.0 | 2.0 | 0.00 | 0.00 | 0.00 | 91 | 1009.3 |
| 20260901120005 | 78 | 350 | 1.0 | 2.0 | 0.00 | 0.00 | 0.00 | 91 | 1009.3 |
| 20260901115902 | 78 | 350 | 0.0 | 0.0 | 0.00 | 0.00 | 0.00 | 91 | 1009.3 |
| 20260901115803 | 78 | 350 | 0.0 | 0.0 | 0.00 | 0.00 | 0.00 | 91 | 1009.3 |
| 20260901115703 | 78 | 350 | 0.0 | 0.0 | 0.00 | 0.00 | 0.00 | 91 | 1009.3 |
| 20260901115602 | 78 | 350 | 0.0 | 0.0 | 0.00 | 0.00 | 0.00 | 91 | 1009.3 |
| 20260901115504 | 78 | 345 | 0.0 | 0.0 | 0.00 | 0.00 | 0.00 | 91 | 1009.3 |
| 20260901115404 | 78 | 345 | 0.0 | 1.0 | 0.00 | 0.00 | 0.00 | 91 | 1009.3 |
| 20260901115257 | 78 | 345 | 0.0 | 2.0 | 0.00 | 0.00 | 0.00 | 91 | 1009.3 |
| 20260901115150 | 78 | 345 | 0.0 | 3.0 | 0.00 | 0.00 | 0.00 | 91 | 1009.2 |
| 20260901115049 | 78 | 345 | 0.0 | 3.0 | 0.00 | 0.00 | 0.00 | 91 | 1009.1 |
| 20260901114948 | 78 | 345 | 0.0 | 3.0 | 0.00 | 0.00 | 0.00 | 91 | 1009.2 |
| 20260901114846 | 78 | 345 | 0.0 | 3.0 | 0.00 | 0.00 | 0.00 | 91 | 1009.2 |
| 20260901114746 | 78 | 345 | 0.0 | 3.0 | 0.00 | 0.00 | 0.00 | 91 | 1009.2 |
| 20260901114643 | 78 | 345 | 0.0 | 3.0 | 0.00 | 0.00 | 0.00 | 91 | 1009.3 |
| 20260901114542 | 78 | 345 | 1.0 | 3.0 | 0.00 | 0.00 | 0.00 | 91 | 1009.2 |
| 20260901114440 | 78 | 345 | 1.0 | 3.0 | 0.00 | 0.00 | 0.00 | 91 | 1009.2 |
| 20260901114338 | 78 | 345 | 2.0 | 3.0 | 0.00 | 0.00 | 0.00 | 91 | 1009.2 |
| 20260901114237 | 78 | 343 | 2.0 | 3.0 | 0.00 | 0.00 | 0.00 | 91 | 1009.2 |
| 20260901114136 | 78 | 334 | 2.0 | 3.0 | 0.00 | 0.00 | 0.00 | 91 | 1009.1 |
| 20260901114032 | 78 | 334 | 2.0 | 3.0 | 0.00 | 0.00 | 0.00 | 91 | 1009.1 |
| 20260901113930 | 78 | 330 | 2.0 | 3.0 | 0.00 | 0.00 | 0.00 | 91 | 1009.1 |
| 20260901113832 | 78 | 286 | 2.0 | 3.0 | 0.00 | 0.00 | 0.00 | 91 | 1009.2 |
| 20260901113732 | 78 | 285 | 2.0 | 3.0 | 0.00 | 0.00 | 0.00 | 91 | 1009.2 |
| 20260901113630 | 78 | 233 | 0.0 | 2.0 | 0.00 | 0.00 | 0.00 | 91 | 1009.1 |
| 20260901113533 | 78 | 233 | 0.0 | 0.0 | 0.00 | 0.00 | 0.00 | 91 | 1009.2 |
| 20260901113432 | 78 | 231 | 0.0 | 0.0 | 0.00 | 0.00 | 0.00 | 91 | 1009.2 |
| 20260901113331 | 78 | 231 | 0.0 | 0.0 | 0.00 | 0.00 | 0.00 | 91 | 1009.3 |
| 20260901113233 | 78 | 231 | 0.0 | 0.0 | 0.00 | 0.00 | 0.00 | 91 | 1009.3 |
| 20260901113129 | 78 | 231 | 0.0 | 0.0 | 0.00 | 0.00 | 0.00 | 91 | 1009.3 |
| 20260901113030 | 78 | 231 | 0.0 | 0.0 | 0.00 | 0.00 | 0.00 | 91 | 1009.3 |
| 20260901112930 | 78 | 231 | 0.0 | 0.0 | 0.00 | 0.00 | 0.00 | 91 | 1009.3 |
| 20260901112824 | 78 | 230 | 0.0 | 0.0 | 0.00 | 0.00 | 0.00 | 91 | 1009.3 |
| 20260901112721 | 78 | 230 | 0.0 | 0.0 | 0.00 | 0.00 | 0.00 | 91 | 1009.3 |
| 20260901112621 | 78 | 230 | 0.0 | 0.0 | 0.00 | 0.00 | 0.00 | 91 | 1009.3 |
| 20260901112520 | 78 | 230 | 0.0 | 0.0 | 0.00 | 0.00 | 0.00 | 91 | 1009.4 |
| 20260901112420 | 78 | 228 | 0.0 | 0.0 | 0.00 | 0.00 | 0.00 | 91 | 1009.4 |
| 20260901112321 | 78 | 228 | 0.0 | 1.0 | 0.00 | 0.00 | 0.00 | 90 | 1009.3 |
| 20260901112221 | 78 | 228 | 0.0 | 1.0 | 0.00 | 0.00 | 0.00 | 90 | 1009.4 |
| 20260901112120 | 78 | 228 | 0.0 | 2.0 | 0.00 | 0.00 | 0.00 | 91 | 1009.4 |
| 20260901112019 | 78 | 228 | 0.0 | 3.0 | 0.00 | 0.00 | 0.00 | 91 | 1009.4 |
| 20260901111920 | 78 | 228 | 0.0 | 3.0 | 0.00 | 0.00 | 0.00 | 91 | 1009.3 |
| 20260901111820 | 78 | 228 | 0.0 | 3.0 | 0.00 | 0.00 | 0.00 | 91 | 1009.3 |
| 20260901111721 | 78 | 228 | 0.0 | 3.0 | 0.00 | 0.00 | 0.00 | 91 | 1009.3 |
| 20260901111621 | 78 | 227 | 0.0 | 3.0 | 0.00 | 0.00 | 0.00 | 91 | 1009.2 |
| 20260901111521 | 78 | 227 | 0.0 | 3.0 | 0.00 | 0.00 | 0.00 | 91 | 1009.2 |
| 20260901111422 | 78 | 227 | 0.0 | 3.0 | 0.00 | 0.00 | 0.00 | 91 | 1009.2 |
| 20260901111320 | 78 | 227 | 1.0 | 3.0 | 0.00 | 0.00 | 0.00 | 91 | 1009.2 |
| 20260901111220 | 78 | 227 | 2.0 | 3.0 | 0.00 | 0.00 | 0.00 | 91 | 1009.2 |
| 20260901111119 | 78 | 227 | 2.0 | 3.0 | 0.00 | 0.00 | 0.00 | 91 | 1009.2 |
| 20260901111020 | 78 | 227 | 2.0 | 3.0 | 0.00 | 0.00 | 0.00 | 91 | 1009.3 |
| 20260901110920 | 78 | 162 | 1.0 | 2.0 | 0.00 | 0.00 | 0.00 | 90 | 1009.3 |
| 20260901110820 | 78 | 161 | 2.0 | 2.0 | 0.00 | 0.00 | 0.00 | 90 | 1009.3 |
| 20260901110721 | 78 | 161 | 1.0 | 2.0 | 0.00 | 0.00 | 0.00 | 90 | 1009.3 |
| 20260901110619 | 78 | 159 | 0.0 | 2.0 | 0.00 | 0.00 | 0.00 | 90 | 1009.3 |
| 20260901110521 | 78 | 159 | 0.0 | 0.0 | 0.00 | 0.00 | 0.00 | 91 | 1009.3 |
| 20260901110419 | 78 | 159 | 0.0 | 0.0 | 0.00 | 0.00 | 0.00 | 91 | 1009.3 |
| 20260901110320 | 78 | 159 | 0.0 | 0.0 | 0.00 | 0.00 | 0.00 | 91 | 1009.3 |
| 20260901110220 | 78 | 159 | 0.0 | 0.0 | 0.00 | 0.00 | 0.00 | 91 | 1009.3 |
| 20260901110120 | 78 | 159 | 0.0 | 0.0 | 0.00 | 0.00 | 0.00 | 91 | 1009.3 |
| 20260901110021 | 78 | 159 | 0.0 | 0.0 | 0.00 | 0.00 | 0.00 | 90 | 1009.3 |
| 20260901105919 | 78 | 159 | 0.0 | 0.0 | 0.00 | 0.00 | 0.00 | 91 | 1009.3 |
| 20260901105821 | 78 | 159 | 0.0 | 0.0 | 0.00 | 0.00 | 0.00 | 90 | 1009.3 |
| 20260901105719 | 78 | 159 | 0.0 | 0.0 | 0.00 | 0.00 | 0.00 | 90 | 1009.3 |
| 20260901105619 | 78 | 159 | 0.0 | 0.0 | 0.00 | 0.00 | 0.00 | 91 | 1009.3 |
| 20260901105520 | 78 | 159 | 0.0 | 0.0 | 0.00 | 0.00 | 0.00 | 91 | 1009.3 |
| 20260901105421 | 78 | 159 | 0.0 | 0.0 | 0.00 | 0.00 | 0.00 | 91 | 1009.2 |
| 20260901105320 | 78 | 159 | 0.0 | 0.0 | 0.00 | 0.00 | 0.00 | 91 | 1009.3 |
| 20260901105218 | 78 | 159 | 0.0 | 0.0 | 0.00 | 0.00 | 0.00 | 91 | 1009.3 |
| 20260901105120 | 78 | 159 | 0.0 | 0.0 | 0.00 | 0.00 | 0.00 | 91 | 1009.3 |
| 20260901105020 | 78 | 159 | 0.0 | 0.0 | 0.00 | 0.00 | 0.00 | 91 | 1009.2 |
| 20260901104919 | 78 | 159 | 0.0 | 0.0 | 0.00 | 0.00 | 0.00 | 91 | 1009.3 |
| 20260901104819 | 78 | 159 | 0.0 | 0.0 | 0.00 | 0.00 | 0.00 | 91 | 1009.2 |
| 20260901104720 | 78 | 159 | 0.0 | 0.0 | 0.00 | 0.00 | 0.00 | 91 | 1009.2 |
| 20260901104620 | 78 | 159 | 0.0 | 0.0 | 0.00 | 0.00 | 0.00 | 91 | 1009.2 |
| 20260901104520 | 78 | 159 | 0.0 | 0.0 | 0.00 | 0.00 | 0.00 | 91 | 1009.2 |
| 20260901104420 | 78 | 159 | 0.0 | 0.0 | 0.00 | 0.00 | 0.00 | 91 | 1009.1 |
| 20260901104319 | 78 | 159 | 0.0 | 0.0 | 0.00 | 0.00 | 0.00 | 91 | 1009.2 |
| 20260901104218 | 78 | 159 | 0.0 | 0.0 | 0.00 | 0.00 | 0.00 | 91 | 1009.2 |
| 20260901104120 | 78 | 159 | 0.0 | 0.0 | 0.00 | 0.00 | 0.00 | 91 | 1009.2 |
| 20260901104019 | 78 | 159 | 0.0 | 0.0 | 0.00 | 0.00 | 0.00 | 91 | 1009.1 |
| 20260901103919 | 78 | 159 | 0.0 | 0.0 | 0.00 | 0.00 | 0.00 | 91 | 1009.1 |
| 20260901103819 | 78 | 161 | 0.0 | 0.0 | 0.00 | 0.00 | 0.00 | 91 | 1009.1 |
| 20260901103719 | 78 | 161 | 0.0 | 0.0 | 0.00 | 0.00 | 0.00 | 91 | 1009.1 |
| 20260901103618 | 78 | 161 | 0.0 | 0.0 | 0.00 | 0.00 | 0.00 | 91 | 1009.0 |
| 20260901103519 | 78 | 161 | 0.0 | 0.0 | 0.00 | 0.00 | 0.00 | 91 | 1009.1 |
| 20260901103419 | 78 | 161 | 0.0 | 0.0 | 0.00 | 0.00 | 0.00 | 91 | 1009.0 |
| 20260901103319 | 78 | 161 | 0.0 | 0.0 | 0.00 | 0.00 | 0.00 | 91 | 1009.0 |
| 20260901103218 | 78 | 161 | 0.0 | 0.0 | 0.00 | 0.00 | 0.00 | 91 | 1008.9 |
| 20260901103118 | 78 | 161 | 0.0 | 0.0 | 0.00 | 0.00 | 0.00 | 91 | 1008.9 |
| 20260901103020 | 78 | 161 | 0.0 | 0.0 | 0.00 | 0.00 | 0.00 | 91 | 1008.9 |
| 20260901102919 | 78 | 161 | 0.0 | 0.0 | 0.00 | 0.00 | 0.00 | 91 | 1008.9 |
| 20260901102819 | 78 | 159 | 0.0 | 0.0 | 0.00 | 0.00 | 0.00 | 91 | 1008.9 |
| 20260901102718 | 78 | 159 | 0.0 | 0.0 | 0.00 | 0.00 | 0.00 | 91 | 1009.0 |
| 20260901102618 | 78 | 159 | 0.0 | 0.0 | 0.00 | 0.00 | 0.00 | 91 | 1008.9 |
| 20260901102520 | 78 | 159 | 0.0 | 0.0 | 0.00 | 0.00 | 0.00 | 91 | 1009.0 |
| 20260901102418 | 78 | 159 | 0.0 | 0.0 | 0.00 | 0.00 | 0.00 | 91 | 1009.0 |
| 20260901102318 | 78 | 159 | 0.0 | 0.0 | 0.00 | 0.00 | 0.00 | 91 | 1009.0 |
| 20260901102220 | 78 | 159 | 0.0 | 0.0 | 0.00 | 0.00 | 0.00 | 91 | 1009.0 |
| 20260901102120 | 78 | 159 | 0.0 | 0.0 | 0.00 | 0.00 | 0.00 | 90 | 1009.0 |
| 20260901102018 | 78 | 159 | 0.0 | 0.0 | 0.00 | 0.00 | 0.00 | 90 | 1009.0 |
| 20260901101919 | 78 | 159 | 0.0 | 0.0 | 0.00 | 0.00 | 0.00 | 90 | 1009.0 |
| 20260901101819 | 78 | 159 | 0.0 | 0.0 | 0.00 | 0.00 | 0.00 | 91 | 1009.0 |
| 20260901101719 | 78 | 159 | 0.0 | 0.0 | 0.00 | 0.00 | 0.00 | 90 | 1009.0 |
| 20260901101618 | 78 | 159 | 0.0 | 0.0 | 0.00 | 0.00 | 0.00 | 90 | 1009.0 |
| 20260901101519 | 78 | 159 | 0.0 | 0.0 | 0.00 | 0.00 | 0.00 | 90 | 1009.1 |
| 20260901101419 | 78 | 159 | 0.0 | 0.0 | 0.00 | 0.00 | 0.00 | 91 | 1009.1 |
| 20260901101317 | 78 | 159 | 0.0 | 0.0 | 0.00 | 0.00 | 0.00 | 90 | 1009.1 |
| 20260901101219 | 78 | 159 | 0.0 | 0.0 | 0.00 | 0.00 | 0.00 | 90 | 1009.0 |
| 20260901101118 | 78 | 159 | 0.0 | 0.0 | 0.00 | 0.00 | 0.00 | 90 | 1009.1 |
| 20260901101019 | 78 | 159 | 0.0 | 0.0 | 0.00 | 0.00 | 0.00 | 90 | 1009.1 |
| 20260901100920 | 78 | 159 | 0.0 | 0.0 | 0.00 | 0.00 | 0.00 | 90 | 1009.1 |
| 20260901100819 | 78 | 159 | 0.0 | 0.0 | 0.00 | 0.00 | 0.00 | 90 | 1009.1 |
| 20260901100718 | 78 | 159 | 0.0 | 0.0 | 0.00 | 0.00 | 0.00 | 90 | 1009.1 |
| 20260901100621 | 78 | 159 | 0.0 | 0.0 | 0.00 | 0.00 | 0.00 | 90 | 1009.2 |
| 20260901100520 | 78 | 159 | 0.0 | 0.0 | 0.00 | 0.00 | 0.00 | 90 | 1009.1 |
| 20260901100419 | 78 | 159 | 0.0 | 0.0 | 0.00 | 0.00 | 0.00 | 90 | 1009.1 |
| 20260901100318 | 78 | 159 | 0.0 | 0.0 | 0.00 | 0.00 | 0.00 | 90 | 1009.2 |
| 20260901100219 | 78 | 159 | 0.0 | 0.0 | 0.00 | 0.00 | 0.00 | 90 | 1009.1 |
| 20260901100119 | 78 | 159 | 0.0 | 0.0 | 0.00 | 0.00 | 0.00 | 90 | 1009.1 |
| 20260901100019 | 78 | 159 | 0.0 | 0.0 | 0.00 | 0.00 | 0.00 | 90 | 1009.0 |
| 20260901095917 | 79 | 159 | 0.0 | 0.0 | 0.00 | 0.00 | 0.00 | 90 | 1009.0 |
| 20260901095818 | 79 | 159 | 0.0 | 0.0 | 0.00 | 0.00 | 0.00 | 90 | 1009.0 |
| 20260901095718 | 79 | 159 | 0.0 | 0.0 | 0.00 | 0.00 | 0.00 | 90 | 1009.0 |
| 20260901095617 | 79 | 159 | 0.0 | 0.0 | 0.00 | 0.00 | 0.00 | 90 | 1009.0 |
| 20260901095517 | 79 | 159 | 0.0 | 0.0 | 0.00 | 0.00 | 0.00 | 90 | 1009.0 |
| 20260901095418 | 79 | 159 | 0.0 | 0.0 | 0.00 | 0.00 | 0.00 | 90 | 1009.0 |
| 20260901095317 | 79 | 159 | 0.0 | 0.0 | 0.00 | 0.00 | 0.00 | 90 | 1009.1 |
| 20260901095219 | 79 | 159 | 0.0 | 0.0 | 0.00 | 0.00 | 0.00 | 90 | 1009.1 |
| 20260901095118 | 79 | 159 | 0.0 | 0.0 | 0.00 | 0.00 | 0.00 | 90 | 1009.1 |
| 20260901095019 | 79 | 159 | 0.0 | 0.0 | 0.00 | 0.00 | 0.00 | 90 | 1009.2 |
| 20260901094917 | 79 | 159 | 0.0 | 0.0 | 0.00 | 0.00 | 0.00 | 90 | 1009.2 |
| 20260901094817 | 79 | 159 | 0.0 | 0.0 | 0.00 | 0.00 | 0.00 | 90 | 1009.2 |
| 20260901094718 | 79 | 159 | 0.0 | 0.0 | 0.00 | 0.00 | 0.00 | 90 | 1009.1 |
| 20260901094617 | 79 | 159 | 0.0 | 0.0 | 0.00 | 0.00 | 0.00 | 90 | 1009.2 |
| 20260901094520 | 79 | 159 | 0.0 | 0.0 | 0.00 | 0.00 | 0.00 | 90 | 1009.2 |
| 20260901094418 | 79 | 159 | 0.0 | 0.0 | 0.00 | 0.00 | 0.00 | 90 | 1009.2 |
| 20260901094317 | 79 | 159 | 0.0 | 0.0 | 0.00 | 0.00 | 0.00 | 90 | 1009.2 |
| 20260901094220 | 79 | 159 | 0.0 | 0.0 | 0.00 | 0.00 | 0.00 | 90 | 1009.1 |
| 20260901094119 | 78 | 159 | 0.0 | 0.0 | 0.00 | 0.00 | 0.00 | 90 | 1009.1 |
| 20260901094018 | 78 | 159 | 0.0 | 0.0 | 0.00 | 0.00 | 0.00 | 90 | 1009.2 |
| 20260901093917 | 78 | 159 | 0.0 | 0.0 | 0.00 | 0.00 | 0.00 | 90 | 1009.1 |
| 20260901093819 | 78 | 159 | 0.0 | 0.0 | 0.00 | 0.00 | 0.00 | 90 | 1009.2 |
| 20260901093718 | 78 | 159 | 0.0 | 0.0 | 0.00 | 0.00 | 0.00 | 90 | 1009.2 |
| 20260901093619 | 78 | 159 | 0.0 | 0.0 | 0.00 | 0.00 | 0.00 | 90 | 1009.0 |
| 20260901093518 | 78 | 159 | 0.0 | 0.0 | 0.00 | 0.00 | 0.00 | 90 | 1009.1 |
| 20260901093417 | 78 | 159 | 0.0 | 0.0 | 0.00 | 0.00 | 0.00 | 90 | 1009.1 |
| 20260901093318 | 78 | 159 | 0.0 | 0.0 | 0.00 | 0.00 | 0.00 | 90 | 1009.1 |
| 20260901093218 | 78 | 159 | 0.0 | 0.0 | 0.00 | 0.00 | 0.00 | 90 | 1009.2 |
| 20260901093118 | 78 | 159 | 0.0 | 0.0 | 0.00 | 0.00 | 0.00 | 90 | 1009.2 |
| 20260901093018 | 78 | 159 | 0.0 | 0.0 | 0.00 | 0.00 | 0.00 | 90 | 1009.1 |
| 20260901092917 | 78 | 159 | 0.0 | 0.0 | 0.00 | 0.00 | 0.00 | 89 | 1009.1 |
| 20260901092817 | 79 | 159 | 0.0 | 0.0 | 0.00 | 0.00 | 0.00 | 89 | 1009.0 |
| 20260901092719 | 79 | 159 | 0.0 | 0.0 | 0.00 | 0.00 | 0.00 | 90 | 1009.1 |
| 20260901092619 | 79 | 159 | 0.0 | 0.0 | 0.00 | 0.00 | 0.00 | 90 | 1009.1 |
| 20260901092519 | 79 | 159 | 0.0 | 0.0 | 0.00 | 0.00 | 0.00 | 90 | 1009.1 |
| 20260901092418 | 79 | 159 | 0.0 | 0.0 | 0.00 | 0.00 | 0.00 | 89 | 1009.1 |
| 20260901092317 | 79 | 159 | 0.0 | 0.0 | 0.00 | 0.00 | 0.00 | 89 | 1009.1 |
| 20260901092218 | 79 | 159 | 0.0 | 0.0 | 0.00 | 0.00 | 0.00 | 89 | 1009.1 |
| 20260901092120 | 79 | 159 | 0.0 | 0.0 | 0.00 | 0.00 | 0.00 | 89 | 1009.1 |
| 20260901092017 | 79 | 159 | 0.0 | 0.0 | 0.00 | 0.00 | 0.00 | 89 | 1009.1 |
| 20260901091917 | 79 | 161 | 0.0 | 0.0 | 0.00 | 0.00 | 0.00 | 89 | 1009.2 |
| 20260901091817 | 79 | 161 | 0.0 | 0.0 | 0.00 | 0.00 | 0.00 | 89 | 1009.1 |
| 20260901091718 | 79 | 159 | 0.0 | 0.0 | 0.00 | 0.00 | 0.00 | 89 | 1009.1 |
| 20260901091618 | 79 | 161 | 0.0 | 0.0 | 0.00 | 0.00 | 0.00 | 89 | 1009.1 |
| 20260901091517 | 79 | 161 | 0.0 | 0.0 | 0.00 | 0.00 | 0.00 | 89 | 1009.1 |
| 20260901091418 | 79 | 159 | 0.0 | 0.0 | 0.00 | 0.00 | 0.00 | 89 | 1009.1 |
| 20260901091317 | 79 | 161 | 0.0 | 0.0 | 0.00 | 0.00 | 0.00 | 89 | 1009.1 |
| 20260901091218 | 79 | 161 | 0.0 | 0.0 | 0.00 | 0.00 | 0.00 | 89 | 1009.2 |
| 20260901091109 | 79 | 161 | 0.0 | 0.0 | 0.00 | 0.00 | 0.00 | 89 | 1009.1 |
| 20260901091009 | 79 | 161 | 0.0 | 0.0 | 0.00 | 0.00 | 0.00 | 89 | 1009.1 |
| 20260901090907 | 79 | 161 | 0.0 | 0.0 | 0.00 | 0.00 | 0.00 | 89 | 1009.1 |
| 20260901090807 | 79 | 161 | 0.0 | 0.0 | 0.00 | 0.00 | 0.00 | 88 | 1009.2 |
| 20260901090704 | 79 | 161 | 0.0 | 0.0 | 0.00 | 0.00 | 0.00 | 88 | 1009.0 |
| 20260901090603 | 79 | 161 | 0.0 | 0.0 | 0.00 | 0.00 | 0.00 | 88 | 1009.0 |
| 20260901090503 | 79 | 161 | 0.0 | 0.0 | 0.00 | 0.00 | 0.00 | 89 | 1009.1 |
| 20260901090401 | 79 | 161 | 0.0 | 0.0 | 0.00 | 0.00 | 0.00 | 89 | 1009.1 |
| 20260901090304 | 79 | 161 | 0.0 | 0.0 | 0.00 | 0.00 | 0.00 | 89 | 1009.1 |
| 20260901090202 | 79 | 161 | 0.0 | 0.0 | 0.00 | 0.00 | 0.00 | 89 | 1009.1 |
| 20260901090103 | 79 | 161 | 0.0 | 0.0 | 0.00 | 0.00 | 0.00 | 89 | 1009.1 |
| 20260901090003 | 79 | 161 | 0.0 | 0.0 | 0.00 | 0.00 | 0.00 | 89 | 1009.1 |
| 20260901085904 | 79 | 159 | 0.0 | 0.0 | 0.00 | 0.00 | 0.00 | 88 | 1009.1 |
| 20260901085803 | 79 | 161 | 0.0 | 0.0 | 0.00 | 0.00 | 0.00 | 88 | 1009.0 |
| 20260901085700 | 79 | 161 | 0.0 | 0.0 | 0.00 | 0.00 | 0.00 | 88 | 1009.1 |
| 20260901085551 | 79 | 161 | 0.0 | 0.0 | 0.00 | 0.00 | 0.00 | 88 | 1009.0 |
| 20260901085449 | 79 | 159 | 0.0 | 0.0 | 0.00 | 0.00 | 0.00 | 88 | 1009.1 |
| 20260901085346 | 79 | 161 | 0.0 | 0.0 | 0.00 | 0.00 | 0.00 | 88 | 1009.1 |
| 20260901085246 | 79 | 161 | 0.0 | 0.0 | 0.00 | 0.00 | 0.00 | 88 | 1009.1 |
| 20260901085144 | 79 | 161 | 0.0 | 0.0 | 0.00 | 0.00 | 0.00 | 88 | 1009.1 |
| 20260901085043 | 79 | 161 | 0.0 | 0.0 | 0.00 | 0.00 | 0.00 | 88 | 1009.1 |
| 20260901084941 | 80 | 161 | 0.0 | 0.0 | 0.00 | 0.00 | 0.00 | 88 | 1009.2 |
| 20260901084831 | 80 | 161 | 0.0 | 0.0 | 0.00 | 0.00 | 0.00 | 88 | 1009.2 |
| 20260901084730 | 80 | 161 | 0.0 | 0.0 | 0.00 | 0.00 | 0.00 | 88 | 1009.1 |
| 20260901084632 | 80 | 161 | 0.0 | 0.0 | 0.00 | 0.00 | 0.00 | 88 | 1009.2 |
| 20260901084531 | 80 | 161 | 0.0 | 0.0 | 0.00 | 0.00 | 0.00 | 88 | 1009.2 |
| 20260901084431 | 80 | 159 | 0.0 | 0.0 | 0.00 | 0.00 | 0.00 | 88 | 1009.1 |
| 20260901084332 | 80 | 159 | 0.0 | 0.0 | 0.00 | 0.00 | 0.00 | 88 | 1009.2 |
| 20260901084232 | 80 | 161 | 0.0 | 0.0 | 0.00 | 0.00 | 0.00 | 88 | 1009.2 |
| 20260901084131 | 80 | 161 | 0.0 | 0.0 | 0.00 | 0.00 | 0.00 | 88 | 1009.2 |
| 20260901084030 | 80 | 161 | 0.0 | 0.0 | 0.00 | 0.00 | 0.00 | 88 | 1009.2 |
| 20260901083931 | 80 | 161 | 0.0 | 0.0 | 0.00 | 0.00 | 0.00 | 88 | 1009.2 |
| 20260901083831 | 80 | 161 | 0.0 | 0.0 | 0.00 | 0.00 | 0.00 | 88 | 1009.2 |
| 20260901083732 | 80 | 161 | 0.0 | 0.0 | 0.00 | 0.00 | 0.00 | 88 | 1009.3 |
| 20260901083632 | 80 | 161 | 0.0 | 0.0 | 0.00 | 0.00 | 0.00 | 88 | 1009.2 |
| 20260901083531 | 80 | 161 | 0.0 | 0.0 | 0.00 | 0.00 | 0.00 | 88 | 1009.2 |
| 20260901083433 | 80 | 161 | 0.0 | 0.0 | 0.00 | 0.00 | 0.00 | 88 | 1009.3 |
| 20260901083332 | 80 | 161 | 0.0 | 0.0 | 0.00 | 0.00 | 0.00 | 88 | 1009.2 |
| 20260901083219 | 80 | 161 | 0.0 | 0.0 | 0.00 | 0.00 | 0.00 | 88 | 1009.3 |
| 20260901083117 | 80 | 161 | 0.0 | 0.0 | 0.00 | 0.00 | 0.00 | 88 | 1009.3 |
| 20260901083017 | 80 | 161 | 0.0 | 0.0 | 0.00 | 0.00 | 0.00 | 87 | 1009.3 |
| 20260901082916 | 80 | 161 | 0.0 | 0.0 | 0.00 | 0.00 | 0.00 | 87 | 1009.3 |
| 20260901082816 | 80 | 161 | 0.0 | 0.0 | 0.00 | 0.00 | 0.00 | 87 | 1009.3 |
| 20260901082717 | 80 | 161 | 0.0 | 0.0 | 0.00 | 0.00 | 0.00 | 87 | 1009.2 |
| 20260901082615 | 80 | 161 | 0.0 | 0.0 | 0.00 | 0.00 | 0.00 | 87 | 1009.2 |
| 20260901082517 | 80 | 161 | 0.0 | 0.0 | 0.00 | 0.00 | 0.00 | 87 | 1009.2 |
| 20260901082417 | 80 | 161 | 0.0 | 0.0 | 0.00 | 0.00 | 0.00 | 87 | 1009.3 |
| 20260901082316 | 80 | 161 | 0.0 | 0.0 | 0.00 | 0.00 | 0.00 | 87 | 1009.2 |
| 20260901082216 | 80 | 161 | 0.0 | 0.0 | 0.00 | 0.00 | 0.00 | 87 | 1009.3 |
| 20260901082117 | 80 | 161 | 0.0 | 0.0 | 0.00 | 0.00 | 0.00 | 87 | 1009.3 |
| 20260901082016 | 80 | 161 | 0.0 | 0.0 | 0.00 | 0.00 | 0.00 | 87 | 1009.3 |
| 20260901081915 | 80 | 161 | 0.0 | 0.0 | 0.00 | 0.00 | 0.00 | 87 | 1009.3 |
| 20260901081816 | 80 | 161 | 0.0 | 0.0 | 0.00 | 0.00 | 0.00 | 87 | 1009.3 |
| 20260901081716 | 80 | 161 | 0.0 | 0.0 | 0.00 | 0.00 | 0.00 | 87 | 1009.3 |
| 20260901081616 | 80 | 161 | 0.0 | 0.0 | 0.00 | 0.00 | 0.00 | 87 | 1009.4 |
| 20260901081517 | 80 | 161 | 0.0 | 0.0 | 0.00 | 0.00 | 0.00 | 87 | 1009.4 |
| 20260901081415 | 80 | 161 | 0.0 | 0.0 | 0.00 | 0.00 | 0.00 | 87 | 1009.4 |
| 20260901081316 | 80 | 161 | 0.0 | 0.0 | 0.00 | 0.00 | 0.00 | 87 | 1009.4 |
| 20260901081217 | 80 | 161 | 0.0 | 0.0 | 0.00 | 0.00 | 0.00 | 87 | 1009.4 |
| 20260901081116 | 80 | 161 | 0.0 | 0.0 | 0.00 | 0.00 | 0.00 | 87 | 1009.4 |
| 20260901081017 | 81 | 161 | 0.0 | 0.0 | 0.00 | 0.00 | 0.00 | 87 | 1009.4 |
| 20260901080915 | 80 | 161 | 0.0 | 0.0 | 0.00 | 0.00 | 0.00 | 87 | 1009.4 |
| 20260901080815 | 80 | 161 | 0.0 | 0.0 | 0.00 | 0.00 | 0.00 | 87 | 1009.4 |
| 20260901080715 | 80 | 161 | 0.0 | 0.0 | 0.00 | 0.00 | 0.00 | 87 | 1009.4 |
| 20260901080617 | 81 | 161 | 0.0 | 0.0 | 0.00 | 0.00 | 0.00 | 87 | 1009.4 |
| 20260901080514 | 81 | 161 | 0.0 | 0.0 | 0.00 | 0.00 | 0.00 | 87 | 1009.4 |
| 20260901080412 | 81 | 161 | 0.0 | 0.0 | 0.00 | 0.00 | 0.00 | 87 | 1009.4 |
| 20260901080308 | 80 | 161 | 0.0 | 0.0 | 0.00 | 0.00 | 0.00 | 87 | 1009.5 |
| 20260901080208 | 80 | 159 | 0.0 | 0.0 | 0.00 | 0.00 | 0.00 | 87 | 1009.5 |
| 20260901080107 | 80 | 159 | 0.0 | 0.0 | 0.00 | 0.00 | 0.00 | 87 | 1009.5 |
| 20260901080002 | 81 | 159 | 0.0 | 0.0 | 0.00 | 0.00 | 0.00 | 87 | 1009.6 |
| 20260901075904 | 80 | 159 | 0.0 | 0.0 | 0.00 | 0.00 | 0.00 | 87 | 1009.6 |
| 20260901075803 | 80 | 159 | 0.0 | 0.0 | 0.00 | 0.00 | 0.00 | 87 | 1009.5 |
| 20260901075704 | 80 | 159 | 0.0 | 0.0 | 0.00 | 0.00 | 0.00 | 87 | 1009.6 |
| 20260901075603 | 80 | 159 | 0.0 | 0.0 | 0.00 | 0.00 | 0.00 | 87 | 1009.6 |
| 20260901075505 | 80 | 159 | 0.0 | 0.0 | 0.00 | 0.00 | 0.00 | 87 | 1009.6 |
| 20260901075404 | 81 | 159 | 0.0 | 0.0 | 0.00 | 0.00 | 0.00 | 87 | 1009.6 |
| 20260901075307 | 81 | 159 | 0.0 | 0.0 | 0.00 | 0.00 | 0.00 | 87 | 1009.5 |
| 20260901075203 | 81 | 159 | 0.0 | 0.0 | 0.00 | 0.00 | 0.00 | 87 | 1009.6 |
| 20260901075103 | 81 | 159 | 0.0 | 0.0 | 0.00 | 0.00 | 0.00 | 87 | 1009.6 |
| 20260901075001 | 81 | 159 | 0.0 | 0.0 | 0.00 | 0.00 | 0.00 | 87 | 1009.6 |
| 20260901074903 | 80 | 159 | 0.0 | 0.0 | 0.00 | 0.00 | 0.00 | 87 | 1009.6 |
| 20260901074803 | 81 | 159 | 0.0 | 0.0 | 0.00 | 0.00 | 0.00 | 87 | 1009.6 |
| 20260901074703 | 81 | 159 | 0.0 | 0.0 | 0.00 | 0.00 | 0.00 | 87 | 1009.7 |
| 20260901074601 | 81 | 159 | 0.0 | 0.0 | 0.00 | 0.00 | 0.00 | 87 | 1009.6 |
| 20260901074504 | 81 | 159 | 0.0 | 0.0 | 0.00 | 0.00 | 0.00 | 87 | 1009.6 |
| 20260901074404 | 81 | 157 | 0.0 | 0.0 | 0.00 | 0.00 | 0.00 | 86 | 1009.7 |
| 20260901074304 | 81 | 157 | 0.0 | 0.0 | 0.00 | 0.00 | 0.00 | 86 | 1009.6 |
| 20260901074204 | 81 | 157 | 0.0 | 0.0 | 0.00 | 0.00 | 0.00 | 86 | 1009.6 |
| 20260901074103 | 81 | 157 | 0.0 | 0.0 | 0.00 | 0.00 | 0.00 | 86 | 1009.6 |
| 20260901074004 | 81 | 157 | 0.0 | 0.0 | 0.00 | 0.00 | 0.00 | 86 | 1009.6 |
| 20260901073904 | 81 | 157 | 0.0 | 0.0 | 0.00 | 0.00 | 0.00 | 86 | 1009.6 |
| 20260901073802 | 81 | 157 | 0.0 | 0.0 | 0.00 | 0.00 | 0.00 | 86 | 1009.7 |
| 20260901073703 | 81 | 157 | 0.0 | 0.0 | 0.00 | 0.00 | 0.00 | 86 | 1009.6 |
| 20260901073603 | 81 | 157 | 0.0 | 0.0 | 0.00 | 0.00 | 0.00 | 86 | 1009.7 |
| 20260901073503 | 81 | 157 | 0.0 | 0.0 | 0.00 | 0.00 | 0.00 | 86 | 1009.6 |
| 20260901073403 | 81 | 157 | 0.0 | 0.0 | 0.00 | 0.00 | 0.00 | 86 | 1009.6 |
| 20260901073303 | 81 | 157 | 0.0 | 0.0 | 0.00 | 0.00 | 0.00 | 86 | 1009.7 |
| 20260901073204 | 81 | 157 | 0.0 | 0.0 | 0.00 | 0.00 | 0.00 | 86 | 1009.6 |
| 20260901073103 | 81 | 157 | 0.0 | 0.0 | 0.00 | 0.00 | 0.00 | 86 | 1009.6 |
| 20260901073003 | 81 | 157 | 0.0 | 0.0 | 0.00 | 0.00 | 0.00 | 86 | 1009.6 |
| 20260901072903 | 81 | 157 | 0.0 | 0.0 | 0.00 | 0.00 | 0.00 | 86 | 1009.6 |
| 20260901072804 | 81 | 157 | 0.0 | 0.0 | 0.00 | 0.00 | 0.00 | 86 | 1009.6 |
| 20260901072702 | 81 | 157 | 0.0 | 0.0 | 0.00 | 0.00 | 0.00 | 86 | 1009.6 |
| 20260901072603 | 81 | 157 | 0.0 | 0.0 | 0.00 | 0.00 | 0.00 | 86 | 1009.6 |
| 20260901072504 | 81 | 157 | 0.0 | 0.0 | 0.00 | 0.00 | 0.00 | 86 | 1009.6 |
| 20260901072403 | 81 | 157 | 0.0 | 0.0 | 0.00 | 0.00 | 0.00 | 86 | 1009.7 |
| 20260901072302 | 81 | 157 | 0.0 | 0.0 | 0.00 | 0.00 | 0.00 | 86 | 1009.6 |
| 20260901072204 | 81 | 157 | 0.0 | 0.0 | 0.00 | 0.00 | 0.00 | 85 | 1009.6 |
| 20260901072103 | 81 | 157 | 0.0 | 0.0 | 0.00 | 0.00 | 0.00 | 85 | 1009.6 |
| 20260901072003 | 81 | 157 | 0.0 | 0.0 | 0.00 | 0.00 | 0.00 | 85 | 1009.6 |
| 20260901071904 | 81 | 157 | 0.0 | 0.0 | 0.00 | 0.00 | 0.00 | 85 | 1009.5 |
| 20260901071804 | 81 | 157 | 0.0 | 0.0 | 0.00 | 0.00 | 0.00 | 85 | 1009.5 |
| 20260901071702 | 81 | 157 | 0.0 | 0.0 | 0.00 | 0.00 | 0.00 | 85 | 1009.5 |
| 20260901071603 | 81 | 157 | 0.0 | 0.0 | 0.00 | 0.00 | 0.00 | 85 | 1009.4 |
| 20260901071502 | 81 | 157 | 0.0 | 0.0 | 0.00 | 0.00 | 0.00 | 85 | 1009.5 |
| 20260901071402 | 81 | 157 | 0.0 | 0.0 | 0.00 | 0.00 | 0.00 | 85 | 1009.5 |
| 20260901071304 | 81 | 157 | 0.0 | 0.0 | 0.00 | 0.00 | 0.00 | 85 | 1009.4 |
| 20260901071204 | 81 | 157 | 0.0 | 1.0 | 0.00 | 0.00 | 0.00 | 85 | 1009.5 |
| 20260901071104 | 81 | 157 | 0.0 | 1.0 | 0.00 | 0.00 | 0.00 | 85 | 1009.6 |
| 20260901071003 | 81 | 157 | 0.0 | 1.0 | 0.00 | 0.00 | 0.00 | 84 | 1009.5 |
| 20260901070903 | 81 | 157 | 0.0 | 1.0 | 0.00 | 0.00 | 0.00 | 84 | 1009.6 |
| 20260901070804 | 81 | 157 | 0.0 | 1.0 | 0.00 | 0.00 | 0.00 | 84 | 1009.5 |
| 20260901070703 | 81 | 157 | 0.0 | 1.0 | 0.00 | 0.00 | 0.00 | 84 | 1009.5 |
| 20260901070602 | 81 | 157 | 0.0 | 1.0 | 0.00 | 0.00 | 0.00 | 84 | 1009.5 |
| 20260901070534 | 81 | 157 | 0.0 | 1.0 | 0.00 | 0.00 | 0.00 | 84 | 1009.5 |
| 20260901070520 | 81 | 157 | 0.0 | 1.0 | 0.00 | 0.00 | 0.00 | 84 | 1009.6 |
| 20260901070453 | 81 | 157 | 0.0 | 1.0 | 0.00 | 0.00 | 0.00 | 84 | 1009.5 |
| 20260901070432 | 81 | 157 | 0.0 | 1.0 | 0.00 | 0.00 | 0.00 | 84 | 1009.5 |
| 20260901070103 | 81 | 157 | 0.0 | 1.0 | 0.00 | 0.00 | 0.00 | 84 | 1009.5 |
| 20260901070003 | 81 | 157 | 0.0 | 1.0 | 0.00 | 0.00 | 0.00 | 84 | 1009.5 |
| 20260901065902 | 81 | 157 | 0.0 | 1.0 | 0.00 | 0.00 | 0.00 | 84 | 1009.5 |
| 20260901065802 | 81 | 157 | 1.0 | 1.0 | 0.00 | 0.00 | 0.00 | 84 | 1009.6 |
| 20260901065704 | 81 | 157 | 0.0 | 1.0 | 0.00 | 0.00 | 0.00 | 84 | 1009.5 |
| 20260901065605 | 81 | 157 | 0.0 | 1.0 | 0.00 | 0.00 | 0.00 | 84 | 1009.5 |
| 20260901065502 | 81 | 157 | 1.0 | 1.0 | 0.00 | 0.00 | 0.00 | 84 | 1009.6 |
| 20260901065403 | 81 | 157 | 0.0 | 1.0 | 0.00 | 0.00 | 0.00 | 83 | 1009.6 |
| 20260901065305 | 81 | 157 | 0.0 | 1.0 | 0.00 | 0.00 | 0.00 | 83 | 1009.6 |
| 20260901065202 | 82 | 157 | 0.0 | 0.0 | 0.00 | 0.00 | 0.00 | 84 | 1009.6 |
| 20260901065104 | 82 | 157 | 0.0 | 0.0 | 0.00 | 0.00 | 0.00 | 84 | 1009.6 |
| 20260901065003 | 82 | 157 | 0.0 | 0.0 | 0.00 | 0.00 | 0.00 | 84 | 1009.6 |
| 20260901064902 | 82 | 157 | 0.0 | 0.0 | 0.00 | 0.00 | 0.00 | 84 | 1009.6 |
| 20260901064802 | 82 | 157 | 0.0 | 0.0 | 0.00 | 0.00 | 0.00 | 83 | 1009.6 |
| 20260901064703 | 82 | 157 | 0.0 | 0.0 | 0.00 | 0.00 | 0.00 | 83 | 1009.7 |
| 20260901064603 | 82 | 157 | 0.0 | 0.0 | 0.00 | 0.00 | 0.00 | 83 | 1009.7 |
| 20260901064503 | 82 | 157 | 0.0 | 1.0 | 0.00 | 0.00 | 0.00 | 83 | 1009.7 |
| 20260901064403 | 82 | 157 | 0.0 | 1.0 | 0.00 | 0.00 | 0.00 | 83 | 1009.6 |
| 20260901064304 | 82 | 157 | 0.0 | 1.0 | 0.00 | 0.00 | 0.00 | 83 | 1009.7 |
| 20260901064202 | 82 | 157 | 0.0 | 1.0 | 0.00 | 0.00 | 0.00 | 83 | 1009.6 |
| 20260901064104 | 82 | 157 | 0.0 | 1.0 | 0.00 | 0.00 | 0.00 | 83 | 1009.6 |
| 20260901064003 | 82 | 157 | 0.0 | 1.0 | 0.00 | 0.00 | 0.00 | 83 | 1009.6 |
| 20260901063904 | 82 | 157 | 0.0 | 1.0 | 0.00 | 0.00 | 0.00 | 83 | 1009.6 |
| 20260901063802 | 82 | 157 | 0.0 | 1.0 | 0.00 | 0.00 | 0.00 | 83 | 1009.6 |
| 20260901063704 | 82 | 157 | 0.0 | 1.0 | 0.00 | 0.00 | 0.00 | 83 | 1009.6 |
| 20260901063603 | 82 | 157 | 0.0 | 1.0 | 0.00 | 0.00 | 0.00 | 83 | 1009.6 |
| 20260901063503 | 82 | 157 | 0.0 | 1.0 | 0.00 | 0.00 | 0.00 | 83 | 1009.6 |
| 20260901063403 | 82 | 157 | 0.0 | 1.0 | 0.00 | 0.00 | 0.00 | 83 | 1009.7 |
| 20260901063304 | 82 | 157 | 0.0 | 1.0 | 0.00 | 0.00 | 0.00 | 83 | 1009.6 |
| 20260901063202 | 82 | 157 | 0.0 | 1.0 | 0.00 | 0.00 | 0.00 | 83 | 1009.7 |
| 20260901063105 | 82 | 157 | 0.0 | 1.0 | 0.00 | 0.00 | 0.00 | 83 | 1009.7 |
| 20260901063003 | 82 | 157 | 0.0 | 1.0 | 0.00 | 0.00 | 0.00 | 84 | 1009.6 |
| 20260901062902 | 82 | 157 | 0.0 | 1.0 | 0.00 | 0.00 | 0.00 | 84 | 1009.7 |
| 20260901062803 | 82 | 157 | 0.0 | 1.0 | 0.00 | 0.00 | 0.00 | 84 | 1009.7 |
| 20260901062702 | 82 | 157 | 0.0 | 1.0 | 0.00 | 0.00 | 0.00 | 84 | 1009.7 |
| 20260901062604 | 82 | 157 | 0.0 | 1.0 | 0.00 | 0.00 | 0.00 | 84 | 1009.7 |
| 20260901062503 | 82 | 157 | 0.0 | 1.0 | 0.00 | 0.00 | 0.00 | 83 | 1009.7 |
| 20260901062403 | 82 | 157 | 0.0 | 1.0 | 0.00 | 0.00 | 0.00 | 84 | 1009.7 |
| 20260901062309 | 82 | 157 | 0.0 | 1.0 | 0.00 | 0.00 | 0.00 | 83 | 1009.6 |
| 20260901062202 | 82 | 157 | 0.0 | 1.0 | 0.00 | 0.00 | 0.00 | 83 | 1009.7 |
| 20260901062104 | 82 | 157 | 0.0 | 1.0 | 0.00 | 0.00 | 0.00 | 83 | 1009.7 |
| 20260901062004 | 82 | 157 | 0.0 | 1.0 | 0.00 | 0.00 | 0.00 | 83 | 1009.7 |
| 20260901061904 | 82 | 157 | 0.0 | 1.0 | 0.00 | 0.00 | 0.00 | 83 | 1009.7 |
| 20260901061802 | 82 | 157 | 0.0 | 1.0 | 0.00 | 0.00 | 0.00 | 83 | 1009.7 |
| 20260901061704 | 82 | 157 | 0.0 | 1.0 | 0.00 | 0.00 | 0.00 | 83 | 1009.7 |
| 20260901061602 | 82 | 157 | 0.0 | 1.0 | 0.00 | 0.00 | 0.00 | 83 | 1009.7 |
| 20260901061504 | 82 | 157 | 0.0 | 1.0 | 0.00 | 0.00 | 0.00 | 83 | 1009.7 |
| 20260901061402 | 82 | 157 | 0.0 | 0.0 | 0.00 | 0.00 | 0.00 | 83 | 1009.7 |
| 20260901061303 | 82 | 157 | 0.0 | 0.0 | 0.00 | 0.00 | 0.00 | 83 | 1009.8 |
| 20260901061204 | 82 | 157 | 0.0 | 0.0 | 0.00 | 0.00 | 0.00 | 83 | 1009.7 |
| 20260901061102 | 82 | 157 | 0.0 | 0.0 | 0.00 | 0.00 | 0.00 | 82 | 1009.7 |
| 20260901061005 | 82 | 157 | 0.0 | 0.0 | 0.00 | 0.00 | 0.00 | 82 | 1009.7 |
| 20260901060903 | 82 | 157 | 0.0 | 0.0 | 0.00 | 0.00 | 0.00 | 82 | 1009.7 |
| 20260901060803 | 82 | 157 | 0.0 | 0.0 | 0.00 | 0.00 | 0.00 | 82 | 1009.8 |
| 20260901060702 | 82 | 157 | 0.0 | 0.0 | 0.00 | 0.00 | 0.00 | 82 | 1009.8 |
| 20260901060602 | 82 | 157 | 0.0 | 0.0 | 0.00 | 0.00 | 0.00 | 82 | 1009.7 |
| 20260901060505 | 82 | 157 | 0.0 | 0.0 | 0.00 | 0.00 | 0.00 | 82 | 1009.8 |
| 20260901060402 | 82 | 157 | 0.0 | 0.0 | 0.00 | 0.00 | 0.00 | 82 | 1009.7 |
| 20260901060303 | 83 | 157 | 0.0 | 0.0 | 0.00 | 0.00 | 0.00 | 82 | 1009.8 |
| 20260901060203 | 83 | 157 | 0.0 | 0.0 | 0.00 | 0.00 | 0.00 | 81 | 1009.7 |
| 20260901060005 | 83 | 157 | 0.0 | 0.0 | 0.00 | 0.00 | 0.00 | 81 | 1009.7 |
| 20260901055902 | 83 | 157 | 0.0 | 0.0 | 0.00 | 0.00 | 0.00 | 81 | 1009.7 |
| 20260901055803 | 83 | 157 | 0.0 | 0.0 | 0.00 | 0.00 | 0.00 | 81 | 1009.6 |
| 20260901055703 | 83 | 157 | 0.0 | 0.0 | 0.00 | 0.00 | 0.00 | 81 | 1009.6 |
| 20260901055604 | 83 | 157 | 0.0 | 0.0 | 0.00 | 0.00 | 0.00 | 81 | 1009.7 |
| 20260901055503 | 83 | 157 | 0.0 | 0.0 | 0.00 | 0.00 | 0.00 | 81 | 1009.8 |
| 20260901055402 | 83 | 157 | 0.0 | 0.0 | 0.00 | 0.00 | 0.00 | 81 | 1009.8 |
| 20260901055301 | 83 | 157 | 0.0 | 0.0 | 0.00 | 0.00 | 0.00 | 81 | 1009.8 |
| 20260901055202 | 83 | 157 | 0.0 | 0.0 | 0.00 | 0.00 | 0.00 | 81 | 1009.8 |
| 20260901055103 | 83 | 157 | 0.0 | 0.0 | 0.00 | 0.00 | 0.00 | 81 | 1009.7 |
| 20260901055004 | 83 | 157 | 0.0 | 0.0 | 0.00 | 0.00 | 0.00 | 81 | 1009.7 |
| 20260901054902 | 83 | 157 | 0.0 | 0.0 | 0.00 | 0.00 | 0.00 | 81 | 1009.7 |
| 20260901054804 | 83 | 157 | 0.0 | 1.0 | 0.00 | 0.00 | 0.00 | 80 | 1009.7 |
| 20260901054702 | 83 | 157 | 0.0 | 1.0 | 0.00 | 0.00 | 0.00 | 80 | 1009.7 |
| 20260901054603 | 83 | 157 | 0.0 | 1.0 | 0.00 | 0.00 | 0.00 | 80 | 1009.7 |
| 20260901054503 | 83 | 157 | 0.0 | 1.0 | 0.00 | 0.00 | 0.00 | 80 | 1009.7 |
| 20260901054404 | 83 | 157 | 0.0 | 1.0 | 0.00 | 0.00 | 0.00 | 80 | 1009.8 |
| 20260901054304 | 83 | 157 | 0.0 | 1.0 | 0.00 | 0.00 | 0.00 | 80 | 1009.7 |
| 20260901054203 | 83 | 157 | 0.0 | 1.0 | 0.00 | 0.00 | 0.00 | 80 | 1009.7 |
| 20260901054103 | 83 | 157 | 0.0 | 1.0 | 0.00 | 0.00 | 0.00 | 80 | 1009.7 |
| 20260901054002 | 83 | 157 | 0.0 | 1.0 | 0.00 | 0.00 | 0.00 | 80 | 1009.7 |
| 20260901053903 | 83 | 157 | 0.0 | 1.0 | 0.00 | 0.00 | 0.00 | 80 | 1009.7 |
| 20260901053804 | 83 | 157 | 0.0 | 1.0 | 0.00 | 0.00 | 0.00 | 80 | 1009.6 |
| 20260901053702 | 83 | 157 | 0.0 | 1.0 | 0.00 | 0.00 | 0.00 | 80 | 1009.6 |
| 20260901053602 | 83 | 157 | 0.0 | 1.0 | 0.00 | 0.00 | 0.00 | 80 | 1009.6 |
| 20260901053502 | 83 | 157 | 0.0 | 1.0 | 0.00 | 0.00 | 0.00 | 80 | 1009.7 |
| 20260901053403 | 83 | 157 | 0.0 | 1.0 | 0.00 | 0.00 | 0.00 | 80 | 1009.7 |
| 20260901053303 | 83 | 157 | 0.0 | 1.0 | 0.00 | 0.00 | 0.00 | 81 | 1009.7 |
| 20260901053204 | 83 | 157 | 0.0 | 1.0 | 0.00 | 0.00 | 0.00 | 81 | 1009.7 |
| 20260901053103 | 83 | 157 | 0.0 | 1.0 | 0.00 | 0.00 | 0.00 | 81 | 1009.6 |
| 20260901053004 | 83 | 157 | 0.0 | 1.0 | 0.00 | 0.00 | 0.00 | 81 | 1009.6 |
| 20260901052903 | 83 | 157 | 0.0 | 1.0 | 0.00 | 0.00 | 0.00 | 81 | 1009.6 |
| 20260901052804 | 83 | 157 | 0.0 | 1.0 | 0.00 | 0.00 | 0.00 | 81 | 1009.6 |
| 20260901052704 | 83 | 157 | 0.0 | 0.0 | 0.00 | 0.00 | 0.00 | 81 | 1009.6 |
| 20260901052602 | 83 | 157 | 0.0 | 0.0 | 0.00 | 0.00 | 0.00 | 81 | 1009.6 |
| 20260901052505 | 83 | 157 | 0.0 | 0.0 | 0.00 | 0.00 | 0.00 | 81 | 1009.6 |
| 20260901052403 | 83 | 157 | 0.0 | 1.0 | 0.00 | 0.00 | 0.00 | 80 | 1009.6 |
| 20260901052306 | 83 | 157 | 0.0 | 1.0 | 0.00 | 0.00 | 0.00 | 80 | 1009.5 |
| 20260901052203 | 83 | 157 | 0.0 | 1.0 | 0.00 | 0.00 | 0.00 | 80 | 1009.5 |
| 20260901052104 | 83 | 157 | 0.0 | 1.0 | 0.00 | 0.00 | 0.00 | 80 | 1009.5 |
| 20260901052004 | 83 | 157 | 0.0 | 2.0 | 0.00 | 0.00 | 0.00 | 80 | 1009.6 |
| 20260901051904 | 84 | 157 | 0.0 | 2.0 | 0.00 | 0.00 | 0.00 | 80 | 1009.5 |
| 20260901051804 | 84 | 157 | 0.0 | 2.0 | 0.00 | 0.00 | 0.00 | 80 | 1009.6 |
| 20260901051704 | 84 | 157 | 0.0 | 2.0 | 0.00 | 0.00 | 0.00 | 80 | 1009.5 |
| 20260901051603 | 84 | 157 | 0.0 | 2.0 | 0.00 | 0.00 | 0.00 | 80 | 1009.5 |
| 20260901051504 | 84 | 157 | 0.0 | 2.0 | 0.00 | 0.00 | 0.00 | 80 | 1009.5 |
| 20260901051402 | 84 | 157 | 0.0 | 2.0 | 0.00 | 0.00 | 0.00 | 80 | 1009.4 |
| 20260901051303 | 84 | 157 | 0.0 | 2.0 | 0.00 | 0.00 | 0.00 | 80 | 1009.5 |
| 20260901051204 | 84 | 157 | 0.0 | 2.0 | 0.00 | 0.00 | 0.00 | 80 | 1009.5 |
| 20260901051103 | 84 | 157 | 0.0 | 2.0 | 0.00 | 0.00 | 0.00 | 80 | 1009.5 |
| 20260901051003 | 84 | 157 | 0.0 | 2.0 | 0.00 | 0.00 | 0.00 | 80 | 1009.5 |
| 20260901050903 | 84 | 157 | 0.0 | 2.0 | 0.00 | 0.00 | 0.00 | 80 | 1009.5 |
| 20260901050803 | 84 | 157 | 0.0 | 2.0 | 0.00 | 0.00 | 0.00 | 80 | 1009.5 |
| 20260901050703 | 84 | 157 | 0.0 | 2.0 | 0.00 | 0.00 | 0.00 | 80 | 1009.5 |
| 20260901050602 | 84 | 157 | 0.0 | 2.0 | 0.00 | 0.00 | 0.00 | 80 | 1009.5 |
| 20260901050503 | 84 | 157 | 1.0 | 2.0 | 0.00 | 0.00 | 0.00 | 80 | 1009.4 |
| 20260901050403 | 84 | 157 | 0.0 | 2.0 | 0.00 | 0.00 | 0.00 | 80 | 1009.4 |
| 20260901050302 | 84 | 157 | 0.0 | 2.0 | 0.00 | 0.00 | 0.00 | 80 | 1009.4 |
| 20260901050202 | 84 | 157 | 0.0 | 2.0 | 0.00 | 0.00 | 0.00 | 80 | 1009.3 |
| 20260901050002 | 84 | 157 | 0.0 | 2.0 | 0.00 | 0.00 | 0.00 | 80 | 1009.3 |
| 20260901045903 | 84 | 157 | 0.0 | 2.0 | 0.00 | 0.00 | 0.00 | 80 | 1009.3 |
| 20260901045802 | 84 | 157 | 0.0 | 4.0 | 0.00 | 0.00 | 0.00 | 80 | 1009.3 |
| 20260901045703 | 84 | 157 | 0.0 | 4.0 | 0.00 | 0.00 | 0.00 | 80 | 1009.3 |
| 20260901045603 | 84 | 157 | 0.0 | 4.0 | 0.00 | 0.00 | 0.00 | 80 | 1009.4 |
| 20260901045505 | 84 | 157 | 0.0 | 4.0 | 0.00 | 0.00 | 0.00 | 80 | 1009.4 |
| 20260901045404 | 84 | 157 | 0.0 | 4.0 | 0.00 | 0.00 | 0.00 | 80 | 1009.4 |
| 20260901045306 | 84 | 157 | 0.0 | 4.0 | 0.00 | 0.00 | 0.00 | 80 | 1009.4 |
| 20260901045202 | 84 | 157 | 1.0 | 4.0 | 0.00 | 0.00 | 0.00 | 80 | 1009.3 |
| 20260901045103 | 84 | 157 | 0.0 | 4.0 | 0.00 | 0.00 | 0.00 | 80 | 1009.3 |
| 20260901045003 | 84 | 158 | 1.0 | 4.0 | 0.00 | 0.00 | 0.00 | 80 | 1009.3 |
| 20260901044902 | 84 | 158 | 1.0 | 4.0 | 0.00 | 0.00 | 0.00 | 80 | 1009.3 |
| 20260901044801 | 84 | 162 | 1.0 | 3.0 | 0.00 | 0.00 | 0.00 | 80 | 1009.4 |
| 20260901044702 | 84 | 162 | 2.0 | 3.0 | 0.00 | 0.00 | 0.00 | 80 | 1009.3 |
| 20260901044604 | 84 | 164 | 2.0 | 3.0 | 0.00 | 0.00 | 0.00 | 80 | 1009.3 |
| 20260901044502 | 84 | 145 | 2.0 | 2.0 | 0.00 | 0.00 | 0.00 | 80 | 1009.2 |
| 20260901044405 | 84 | 147 | 2.0 | 2.0 | 0.00 | 0.00 | 0.00 | 80 | 1009.3 |
| 20260901044304 | 84 | 145 | 1.0 | 3.0 | 0.00 | 0.00 | 0.00 | 80 | 1009.3 |
| 20260901044202 | 84 | 145 | 0.0 | 3.0 | 0.00 | 0.00 | 0.00 | 80 | 1009.3 |
| 20260901044102 | 84 | 145 | 1.0 | 3.0 | 0.00 | 0.00 | 0.00 | 80 | 1009.2 |
| 20260901044005 | 84 | 144 | 1.0 | 3.0 | 0.00 | 0.00 | 0.00 | 80 | 1009.2 |
| 20260901043902 | 84 | 142 | 0.0 | 3.0 | 0.00 | 0.00 | 0.00 | 80 | 1009.2 |
| 20260901043803 | 84 | 142 | 1.0 | 3.0 | 0.00 | 0.00 | 0.00 | 80 | 1009.2 |
| 20260901043704 | 84 | 142 | 1.0 | 3.0 | 0.00 | 0.00 | 0.00 | 80 | 1009.2 |
| 20260901043602 | 84 | 144 | 1.0 | 3.0 | 0.00 | 0.00 | 0.00 | 80 | 1009.2 |
| 20260901043503 | 84 | 142 | 1.0 | 3.0 | 0.00 | 0.00 | 0.00 | 80 | 1009.2 |
| 20260901043404 | 84 | 147 | 1.0 | 5.0 | 0.00 | 0.00 | 0.00 | 79 | 1009.1 |
| 20260901043303 | 84 | 147 | 1.0 | 5.0 | 0.00 | 0.00 | 0.00 | 80 | 1009.2 |
| 20260901043202 | 84 | 147 | 2.0 | 5.0 | 0.00 | 0.00 | 0.00 | 80 | 1009.1 |
| 20260901043102 | 84 | 149 | 2.0 | 5.0 | 0.00 | 0.00 | 0.00 | 79 | 1009.1 |
| 20260901043003 | 85 | 151 | 1.0 | 5.0 | 0.00 | 0.00 | 0.00 | 79 | 1009.1 |
| 20260901042903 | 85 | 137 | 0.0 | 5.0 | 0.00 | 0.00 | 0.00 | 79 | 1009.1 |
| 20260901042803 | 85 | 137 | 1.0 | 5.0 | 0.00 | 0.00 | 0.00 | 79 | 1009.2 |
| 20260901042702 | 85 | 137 | 2.0 | 5.0 | 0.00 | 0.00 | 0.00 | 79 | 1009.1 |
| 20260901042603 | 85 | 135 | 3.0 | 5.0 | 0.00 | 0.00 | 0.00 | 79 | 1009.1 |
| 20260901042502 | 85 | 140 | 2.0 | 5.0 | 0.00 | 0.00 | 0.00 | 79 | 1009.2 |
| 20260901042403 | 85 | 130 | 2.0 | 4.0 | 0.00 | 0.00 | 0.00 | 79 | 1009.2 |
| 20260901042306 | 85 | 130 | 3.0 | 4.0 | 0.00 | 0.00 | 0.00 | 79 | 1009.3 |
| 20260901042203 | 85 | 138 | 2.0 | 4.0 | 0.00 | 0.00 | 0.00 | 79 | 1009.2 |
| 20260901042104 | 85 | 131 | 1.0 | 4.0 | 0.00 | 0.00 | 0.00 | 79 | 1009.1 |
| 20260901042003 | 85 | 131 | 2.0 | 4.0 | 0.00 | 0.00 | 0.00 | 79 | 1009.2 |
| 20260901041904 | 85 | 130 | 3.0 | 4.0 | 0.00 | 0.00 | 0.00 | 79 | 1009.2 |
| 20260901041802 | 85 | 130 | 2.0 | 4.0 | 0.00 | 0.00 | 0.00 | 79 | 1009.2 |
| 20260901041702 | 85 | 130 | 2.0 | 4.0 | 0.00 | 0.00 | 0.00 | 79 | 1009.2 |
| 20260901041604 | 85 | 127 | 2.0 | 4.0 | 0.00 | 0.00 | 0.00 | 79 | 1009.1 |
| 20260901041504 | 85 | 125 | 2.0 | 4.0 | 0.00 | 0.00 | 0.00 | 79 | 1009.2 |
| 20260901041403 | 85 | 128 | 2.0 | 4.0 | 0.00 | 0.00 | 0.00 | 79 | 1009.2 |
| 20260901041303 | 85 | 133 | 2.0 | 4.0 | 0.00 | 0.00 | 0.00 | 79 | 1009.2 |
| 20260901041204 | 85 | 116 | 2.0 | 4.0 | 0.00 | 0.00 | 0.00 | 79 | 1009.2 |
| 20260901041104 | 85 | 104 | 3.0 | 4.0 | 0.00 | 0.00 | 0.00 | 79 | 1009.2 |
| 20260901041004 | 85 | 103 | 3.0 | 4.0 | 0.00 | 0.00 | 0.00 | 79 | 1009.3 |
| 20260901040903 | 85 | 117 | 3.0 | 4.0 | 0.00 | 0.00 | 0.00 | 79 | 1009.3 |
| 20260901040802 | 85 | 121 | 2.0 | 4.0 | 0.00 | 0.00 | 0.00 | 79 | 1009.3 |
| 20260901040701 | 85 | 125 | 2.0 | 3.0 | 0.00 | 0.00 | 0.00 | 79 | 1009.3 |
| 20260901040604 | 85 | 127 | 2.0 | 3.0 | 0.00 | 0.00 | 0.00 | 79 | 1009.3 |
| 20260901040504 | 85 | 127 | 2.0 | 4.0 | 0.00 | 0.00 | 0.00 | 79 | 1009.3 |
| 20260901040403 | 85 | 128 | 2.0 | 4.0 | 0.00 | 0.00 | 0.00 | 79 | 1009.3 |
| 20260901040303 | 85 | 128 | 1.0 | 4.0 | 0.00 | 0.00 | 0.00 | 79 | 1009.3 |
| 20260901040203 | 85 | 130 | 1.0 | 4.0 | 0.00 | 0.00 | 0.00 | 79 | 1009.3 |
| 20260901040004 | 85 | 130 | 2.0 | 4.0 | 0.00 | 0.00 | 0.00 | 78 | 1009.2 |
| 20260901035903 | 85 | 130 | 2.0 | 4.0 | 0.00 | 0.00 | 0.00 | 78 | 1009.3 |
| 20260901035801 | 85 | 130 | 2.0 | 4.0 | 0.00 | 0.00 | 0.00 | 78 | 1009.3 |
| 20260901035703 | 85 | 133 | 2.0 | 4.0 | 0.00 | 0.00 | 0.00 | 78 | 1009.2 |
| 20260901035602 | 85 | 133 | 1.0 | 4.0 | 0.00 | 0.00 | 0.00 | 78 | 1009.1 |
| 20260901035505 | 85 | 137 | 0.0 | 2.0 | 0.00 | 0.00 | 0.00 | 78 | 1009.2 |
| 20260901035404 | 85 | 137 | 0.0 | 2.0 | 0.00 | 0.00 | 0.00 | 78 | 1009.1 |
| 20260901035305 | 85 | 137 | 1.0 | 2.0 | 0.00 | 0.00 | 0.00 | 78 | 1009.1 |
| 20260901035204 | 85 | 137 | 1.0 | 3.0 | 0.00 | 0.00 | 0.00 | 78 | 1009.1 |
| 20260901035102 | 85 | 135 | 0.0 | 3.0 | 0.00 | 0.00 | 0.00 | 78 | 1009.0 |
| 20260901035003 | 85 | 135 | 0.0 | 3.0 | 0.00 | 0.00 | 0.00 | 78 | 1009.0 |
| 20260901034902 | 85 | 135 | 0.0 | 3.0 | 0.00 | 0.00 | 0.00 | 78 | 1009.1 |
| 20260901034803 | 85 | 135 | 1.0 | 3.0 | 0.00 | 0.00 | 0.00 | 78 | 1009.1 |
| 20260901034703 | 85 | 135 | 1.0 | 3.0 | 0.00 | 0.00 | 0.00 | 78 | 1009.0 |
| 20260901034602 | 85 | 135 | 1.0 | 3.0 | 0.00 | 0.00 | 0.00 | 78 | 1009.1 |
| 20260901034504 | 85 | 135 | 1.0 | 3.0 | 0.00 | 0.00 | 0.00 | 78 | 1009.1 |
| 20260901034403 | 85 | 134 | 1.0 | 3.0 | 0.00 | 0.00 | 0.00 | 78 | 1009.0 |
| 20260901034303 | 85 | 134 | 2.0 | 3.0 | 0.00 | 0.00 | 0.00 | 78 | 1009.0 |
| 20260901034204 | 85 | 134 | 2.0 | 3.0 | 0.00 | 0.00 | 0.00 | 78 | 1009.0 |
| 20260901034104 | 85 | 135 | 2.0 | 3.0 | 0.00 | 0.00 | 0.00 | 77 | 1009.0 |
| 20260901034002 | 85 | 140 | 2.0 | 3.0 | 0.00 | 0.00 | 0.00 | 77 | 1008.9 |
| 20260901033902 | 85 | 142 | 2.0 | 3.0 | 0.00 | 0.00 | 0.00 | 77 | 1008.9 |
| 20260901033802 | 85 | 144 | 2.0 | 3.0 | 0.00 | 0.00 | 0.00 | 77 | 1008.9 |
| 20260901033703 | 85 | 148 | 2.0 | 3.0 | 0.00 | 0.00 | 0.00 | 77 | 1008.8 |
| 20260901033603 | 85 | 140 | 1.0 | 3.0 | 0.00 | 0.00 | 0.00 | 77 | 1008.8 |
| 20260901033505 | 85 | 141 | 1.0 | 3.0 | 0.00 | 0.00 | 0.00 | 77 | 1008.9 |
| 20260901033402 | 85 | 141 | 1.0 | 3.0 | 0.00 | 0.00 | 0.00 | 77 | 1009.0 |
| 20260901033304 | 85 | 141 | 1.0 | 3.0 | 0.00 | 0.00 | 0.00 | 77 | 1008.9 |
| 20260901033202 | 85 | 141 | 1.0 | 3.0 | 0.00 | 0.00 | 0.00 | 77 | 1008.9 |
| 20260901033102 | 85 | 141 | 1.0 | 3.0 | 0.00 | 0.00 | 0.00 | 77 | 1008.9 |
| 20260901033002 | 85 | 141 | 1.0 | 3.0 | 0.00 | 0.00 | 0.00 | 77 | 1008.9 |
| 20260901032902 | 85 | 141 | 0.0 | 3.0 | 0.00 | 0.00 | 0.00 | 77 | 1008.9 |
| 20260901032804 | 85 | 141 | 1.0 | 3.0 | 0.00 | 0.00 | 0.00 | 77 | 1008.8 |
| 20260901032703 | 85 | 140 | 2.0 | 3.0 | 0.00 | 0.00 | 0.00 | 77 | 1008.9 |
| 20260901032604 | 85 | 137 | 2.0 | 3.0 | 0.00 | 0.00 | 0.00 | 77 | 1008.9 |
| 20260901032501 | 85 | 137 | 2.0 | 3.0 | 0.00 | 0.00 | 0.00 | 77 | 1008.8 |
| 20260901032403 | 85 | 137 | 2.0 | 3.0 | 0.00 | 0.00 | 0.00 | 77 | 1008.8 |
| 20260901032306 | 85 | 138 | 2.0 | 3.0 | 0.00 | 0.00 | 0.00 | 77 | 1008.9 |
| 20260901032203 | 85 | 147 | 2.0 | 3.0 | 0.00 | 0.00 | 0.00 | 76 | 1008.8 |
| 20260901032103 | 85 | 147 | 2.0 | 3.0 | 0.00 | 0.00 | 0.00 | 76 | 1008.8 |
| 20260901032004 | 85 | 149 | 1.0 | 3.0 | 0.00 | 0.00 | 0.00 | 76 | 1008.8 |
| 20260901031903 | 85 | 151 | 0.0 | 2.0 | 0.00 | 0.00 | 0.00 | 76 | 1008.8 |
| 20260901031803 | 85 | 151 | 0.0 | 2.0 | 0.00 | 0.00 | 0.00 | 76 | 1008.8 |
| 20260901031703 | 85 | 151 | 1.0 | 2.0 | 0.00 | 0.00 | 0.00 | 76 | 1008.8 |
| 20260901031604 | 85 | 151 | 1.0 | 3.0 | 0.00 | 0.00 | 0.00 | 76 | 1008.8 |
| 20260901031502 | 85 | 149 | 1.0 | 3.0 | 0.00 | 0.00 | 0.00 | 76 | 1008.7 |
| 20260901031404 | 85 | 149 | 1.0 | 3.0 | 0.00 | 0.00 | 0.00 | 76 | 1008.7 |
| 20260901031303 | 85 | 149 | 1.0 | 3.0 | 0.00 | 0.00 | 0.00 | 76 | 1008.7 |
| 20260901031203 | 85 | 148 | 1.0 | 3.0 | 0.00 | 0.00 | 0.00 | 76 | 1008.7 |
| 20260901031103 | 85 | 148 | 1.0 | 4.0 | 0.00 | 0.00 | 0.00 | 76 | 1008.6 |
| 20260901031004 | 85 | 148 | 1.0 | 4.0 | 0.00 | 0.00 | 0.00 | 76 | 1008.7 |
| 20260901030903 | 85 | 148 | 2.0 | 4.0 | 0.00 | 0.00 | 0.00 | 76 | 1008.6 |
| 20260901030803 | 86 | 147 | 2.0 | 4.0 | 0.00 | 0.00 | 0.00 | 75 | 1008.7 |
| 20260901030702 | 86 | 154 | 2.0 | 4.0 | 0.00 | 0.00 | 0.00 | 75 | 1008.6 |
| 20260901030603 | 86 | 158 | 2.0 | 4.0 | 0.00 | 0.00 | 0.00 | 75 | 1008.7 |
| 20260901030505 | 86 | 159 | 2.0 | 4.0 | 0.00 | 0.00 | 0.00 | 75 | 1008.7 |
| 20260901030404 | 86 | 155 | 2.0 | 4.0 | 0.00 | 0.00 | 0.00 | 75 | 1008.6 |
| 20260901030302 | 86 | 159 | 2.0 | 4.0 | 0.00 | 0.00 | 0.00 | 75 | 1008.6 |
| 20260901030202 | 86 | 135 | 1.0 | 4.0 | 0.00 | 0.00 | 0.00 | 75 | 1008.7 |
| 20260901030104 | 86 | 152 | 0.0 | 3.0 | 0.00 | 0.00 | 0.00 | 75 | 1008.6 |
| 20260901030004 | 86 | 151 | 0.0 | 3.0 | 0.00 | 0.00 | 0.00 | 75 | 1008.5 |
| 20260901025903 | 86 | 151 | 0.0 | 3.0 | 0.00 | 0.00 | 0.00 | 74 | 1008.6 |
| 20260901025803 | 86 | 151 | 0.0 | 3.0 | 0.00 | 0.00 | 0.00 | 74 | 1008.6 |
| 20260901025703 | 86 | 148 | 0.0 | 3.0 | 0.00 | 0.00 | 0.00 | 74 | 1008.6 |
| 20260901025602 | 86 | 147 | 0.0 | 3.0 | 0.00 | 0.00 | 0.00 | 74 | 1008.6 |
| 20260901025503 | 86 | 147 | 1.0 | 3.0 | 0.00 | 0.00 | 0.00 | 74 | 1008.6 |
| 20260901025404 | 86 | 147 | 1.0 | 3.0 | 0.00 | 0.00 | 0.00 | 74 | 1008.5 |
| 20260901025305 | 86 | 149 | 1.0 | 2.0 | 0.00 | 0.00 | 0.00 | 74 | 1008.6 |
| 20260901025204 | 86 | 149 | 1.0 | 2.0 | 0.00 | 0.00 | 0.00 | 74 | 1008.6 |
| 20260901025104 | 86 | 148 | 1.0 | 2.0 | 0.00 | 0.00 | 0.00 | 74 | 1008.5 |
| 20260901025003 | 86 | 147 | 0.0 | 2.0 | 0.00 | 0.00 | 0.00 | 74 | 1008.6 |
| 20260901024902 | 86 | 147 | 0.0 | 2.0 | 0.00 | 0.00 | 0.00 | 74 | 1008.6 |
| 20260901024802 | 86 | 147 | 0.0 | 2.0 | 0.00 | 0.00 | 0.00 | 74 | 1008.5 |
| 20260901024702 | 86 | 147 | 1.0 | 2.0 | 0.00 | 0.00 | 0.00 | 74 | 1008.5 |
| 20260901024602 | 86 | 145 | 1.0 | 2.0 | 0.00 | 0.00 | 0.00 | 74 | 1008.5 |
| 20260901024504 | 86 | 145 | 1.0 | 2.0 | 0.00 | 0.00 | 0.00 | 73 | 1008.5 |
| 20260901024401 | 86 | 145 | 0.0 | 2.0 | 0.00 | 0.00 | 0.00 | 73 | 1008.4 |
| 20260901024303 | 86 | 145 | 0.0 | 2.0 | 0.00 | 0.00 | 0.00 | 73 | 1008.4 |
| 20260901024203 | 86 | 145 | 1.0 | 2.0 | 0.00 | 0.00 | 0.00 | 73 | 1008.5 |
| 20260901024102 | 86 | 145 | 1.0 | 2.0 | 0.00 | 0.00 | 0.00 | 73 | 1008.4 |
| 20260901024001 | 86 | 145 | 1.0 | 2.0 | 0.00 | 0.00 | 0.00 | 73 | 1008.4 |
| 20260901023904 | 86 | 145 | 0.0 | 2.0 | 0.00 | 0.00 | 0.00 | 73 | 1008.4 |
| 20260901023803 | 86 | 145 | 0.0 | 2.0 | 0.00 | 0.00 | 0.00 | 73 | 1008.4 |
| 20260901023705 | 86 | 145 | 0.0 | 2.0 | 0.00 | 0.00 | 0.00 | 73 | 1008.3 |
| 20260901023602 | 86 | 145 | 0.0 | 2.0 | 0.00 | 0.00 | 0.00 | 73 | 1008.3 |
| 20260901023504 | 86 | 145 | 0.0 | 2.0 | 0.00 | 0.00 | 0.00 | 73 | 1008.3 |
| 20260901023404 | 86 | 148 | 1.0 | 2.0 | 0.00 | 0.00 | 0.00 | 73 | 1008.3 |
| 20260901023302 | 86 | 148 | 1.0 | 2.0 | 0.00 | 0.00 | 0.00 | 73 | 1008.3 |
| 20260901023202 | 86 | 148 | 1.0 | 2.0 | 0.00 | 0.00 | 0.00 | 73 | 1008.3 |
| 20260901023103 | 86 | 148 | 1.0 | 2.0 | 0.00 | 0.00 | 0.00 | 73 | 1008.2 |
| 20260901023003 | 86 | 149 | 1.0 | 2.0 | 0.00 | 0.00 | 0.00 | 73 | 1008.3 |
| 20260901022902 | 86 | 149 | 1.0 | 2.0 | 0.00 | 0.00 | 0.00 | 73 | 1008.3 |
| 20260901022803 | 86 | 148 | 0.0 | 2.0 | 0.00 | 0.00 | 0.00 | 73 | 1008.2 |
| 20260901022702 | 86 | 148 | 0.0 | 2.0 | 0.00 | 0.00 | 0.00 | 73 | 1008.2 |
| 20260901022603 | 86 | 148 | 1.0 | 3.0 | 0.00 | 0.00 | 0.00 | 73 | 1008.2 |
| 20260901022504 | 86 | 148 | 0.0 | 3.0 | 0.00 | 0.00 | 0.00 | 73 | 1008.1 |
| 20260901022402 | 86 | 148 | 0.0 | 3.0 | 0.00 | 0.00 | 0.00 | 73 | 1008.2 |
| 20260901022306 | 86 | 148 | 0.0 | 3.0 | 0.00 | 0.00 | 0.00 | 72 | 1008.2 |
| 20260901022205 | 86 | 149 | 1.0 | 3.0 | 0.00 | 0.00 | 0.00 | 72 | 1008.2 |
| 20260901022103 | 86 | 148 | 1.0 | 3.0 | 0.00 | 0.00 | 0.00 | 72 | 1008.1 |
| 20260901022004 | 86 | 148 | 1.0 | 3.0 | 0.00 | 0.00 | 0.00 | 72 | 1008.2 |
| 20260901021903 | 87 | 148 | 1.0 | 3.0 | 0.00 | 0.00 | 0.00 | 72 | 1008.0 |
| 20260901021803 | 87 | 147 | 1.0 | 3.0 | 0.00 | 0.00 | 0.00 | 72 | 1008.0 |
| 20260901021703 | 87 | 147 | 1.0 | 3.0 | 0.00 | 0.00 | 0.00 | 72 | 1008.0 |
| 20260901021604 | 87 | 149 | 1.0 | 3.0 | 0.00 | 0.00 | 0.00 | 72 | 1008.0 |
| 20260901021502 | 87 | 148 | 1.0 | 3.0 | 0.00 | 0.00 | 0.00 | 72 | 1008.0 |
| 20260901021402 | 87 | 148 | 1.0 | 3.0 | 0.00 | 0.00 | 0.00 | 72 | 1007.9 |
| 20260901021303 | 87 | 148 | 1.0 | 5.0 | 0.00 | 0.00 | 0.00 | 72 | 1007.9 |
| 20260901021202 | 87 | 152 | 0.0 | 5.0 | 0.00 | 0.00 | 0.00 | 72 | 1007.9 |
| 20260901021104 | 87 | 152 | 0.0 | 5.0 | 0.00 | 0.00 | 0.00 | 72 | 1007.9 |
| 20260901021003 | 87 | 154 | 0.0 | 5.0 | 0.00 | 0.00 | 0.00 | 72 | 1007.8 |
| 20260901020903 | 87 | 154 | 1.0 | 5.0 | 0.00 | 0.00 | 0.00 | 72 | 1007.9 |
| 20260901020803 | 87 | 154 | 2.0 | 5.0 | 0.00 | 0.00 | 0.00 | 71 | 1007.9 |
| 20260901020704 | 87 | 155 | 2.0 | 5.0 | 0.00 | 0.00 | 0.00 | 71 | 1007.9 |
| 20260901020603 | 87 | 134 | 2.0 | 5.0 | 0.00 | 0.00 | 0.00 | 71 | 1007.9 |
| 20260901020503 | 87 | 134 | 2.0 | 5.0 | 0.00 | 0.00 | 0.00 | 71 | 1007.9 |
| 20260901020404 | 87 | 151 | 3.0 | 5.0 | 0.00 | 0.00 | 0.00 | 71 | 1007.9 |
| 20260901020255 | 87 | 134 | 3.0 | 5.0 | 0.00 | 0.00 | 0.00 | 71 | 1007.9 |
| 20260901020152 | 87 | 124 | 2.0 | 5.0 | 0.00 | 0.00 | 0.00 | 71 | 1007.9 |
| 20260901020051 | 87 | 171 | 2.0 | 5.0 | 0.00 | 0.00 | 0.00 | 71 | 1007.9 |
| 20260901015949 | 87 | 157 | 2.0 | 5.0 | 0.00 | 0.00 | 0.00 | 71 | 1007.9 |
| 20260901015845 | 87 | 159 | 1.0 | 5.0 | 0.00 | 0.00 | 0.00 | 70 | 1007.9 |
| 20260901015732 | 87 | 165 | 1.0 | 5.0 | 0.00 | 0.00 | 0.00 | 70 | 1007.9 |
| 20260901015633 | 88 | 159 | 1.0 | 5.0 | 0.00 | 0.00 | 0.00 | 70 | 1007.9 |
| 20260901015531 | 88 | 145 | 2.0 | 5.0 | 0.00 | 0.00 | 0.00 | 70 | 1007.9 |
| 20260901015434 | 88 | 145 | 3.0 | 5.0 | 0.00 | 0.00 | 0.00 | 70 | 1007.9 |
| 20260901015333 | 88 | 154 | 2.0 | 5.0 | 0.00 | 0.00 | 0.00 | 70 | 1007.8 |
| 20260901015232 | 88 | 142 | 3.0 | 5.0 | 0.00 | 0.00 | 0.00 | 70 | 1007.9 |
| 20260901015132 | 88 | 162 | 2.0 | 5.0 | 0.00 | 0.00 | 0.00 | 69 | 1007.9 |
| 20260901015032 | 88 | 148 | 2.0 | 4.0 | 0.00 | 0.00 | 0.00 | 69 | 1007.8 |
| 20260901014933 | 88 | 147 | 1.0 | 4.0 | 0.00 | 0.00 | 0.00 | 69 | 1007.8 |
| 20260901014831 | 88 | 144 | 1.0 | 4.0 | 0.00 | 0.00 | 0.00 | 68 | 1007.9 |
| 20260901014732 | 88 | 142 | 1.0 | 4.0 | 0.00 | 0.00 | 0.00 | 68 | 1007.8 |
| 20260901014632 | 88 | 142 | 2.0 | 6.0 | 0.00 | 0.00 | 0.00 | 68 | 1007.8 |
| 20260901014531 | 88 | 144 | 1.0 | 6.0 | 0.00 | 0.00 | 0.00 | 68 | 1007.8 |
| 20260901014432 | 88 | 145 | 2.0 | 6.0 | 0.00 | 0.00 | 0.00 | 68 | 1007.8 |
| 20260901014332 | 88 | 148 | 2.0 | 6.0 | 0.00 | 0.00 | 0.00 | 68 | 1007.8 |
| 20260901014231 | 88 | 125 | 2.0 | 6.0 | 0.00 | 0.00 | 0.00 | 68 | 1007.8 |
| 20260901014133 | 88 | 121 | 2.0 | 6.0 | 0.00 | 0.00 | 0.00 | 68 | 1007.8 |
| 20260901014032 | 88 | 113 | 2.0 | 6.0 | 0.00 | 0.00 | 0.00 | 67 | 1007.8 |
| 20260901013932 | 89 | 113 | 2.0 | 6.0 | 0.00 | 0.00 | 0.00 | 67 | 1007.7 |
| 20260901013831 | 89 | 110 | 4.0 | 6.0 | 0.00 | 0.00 | 0.00 | 67 | 1007.7 |
| 20260901013733 | 89 | 111 | 3.0 | 6.0 | 0.00 | 0.00 | 0.00 | 67 | 1007.7 |
| 20260901013632 | 89 | 124 | 2.0 | 6.0 | 0.00 | 0.00 | 0.00 | 67 | 1007.8 |
| 20260901013530 | 89 | 117 | 2.0 | 6.0 | 0.00 | 0.00 | 0.00 | 67 | 1007.8 |
| 20260901013432 | 89 | 117 | 3.0 | 6.0 | 0.00 | 0.00 | 0.00 | 67 | 1007.7 |
| 20260901013333 | 89 | 125 | 3.0 | 6.0 | 0.00 | 0.00 | 0.00 | 67 | 1007.7 |
| 20260901013232 | 89 | 134 | 2.0 | 6.0 | 0.00 | 0.00 | 0.00 | 67 | 1007.7 |
| 20260901013132 | 89 | 123 | 2.0 | 6.0 | 0.00 | 0.00 | 0.00 | 67 | 1007.7 |
| 20260901013031 | 89 | 107 | 3.0 | 6.0 | 0.00 | 0.00 | 0.00 | 67 | 1007.8 |
| 20260901012933 | 89 | 113 | 3.0 | 6.0 | 0.00 | 0.00 | 0.00 | 67 | 1007.8 |
| 20260901012831 | 89 | 124 | 4.0 | 6.0 | 0.00 | 0.00 | 0.00 | 67 | 1007.7 |
| 20260901012731 | 89 | 137 | 4.0 | 6.0 | 0.00 | 0.00 | 0.00 | 67 | 1007.8 |
| 20260901012631 | 89 | 117 | 3.0 | 6.0 | 0.00 | 0.00 | 0.00 | 67 | 1007.8 |
| 20260901012531 | 89 | 121 | 4.0 | 6.0 | 0.00 | 0.00 | 0.00 | 67 | 1007.8 |
| 20260901012433 | 89 | 104 | 3.0 | 6.0 | 0.00 | 0.00 | 0.00 | 67 | 1007.9 |
| 20260901012333 | 89 | 110 | 3.0 | 6.0 | 0.00 | 0.00 | 0.00 | 67 | 1007.9 |
| 20260901012231 | 89 | 109 | 4.0 | 6.0 | 0.00 | 0.00 | 0.00 | 67 | 1007.8 |
| 20260901012130 | 89 | 111 | 4.0 | 6.0 | 0.00 | 0.00 | 0.00 | 67 | 1007.8 |
| 20260901012031 | 89 | 107 | 4.0 | 5.0 | 0.00 | 0.00 | 0.00 | 67 | 1007.8 |
| 20260901011934 | 89 | 104 | 3.0 | 5.0 | 0.00 | 0.00 | 0.00 | 67 | 1007.9 |
| 20260901011832 | 89 | 118 | 3.0 | 5.0 | 0.00 | 0.00 | 0.00 | 67 | 1007.9 |
| 20260901011731 | 89 | 120 | 4.0 | 5.0 | 0.00 | 0.00 | 0.00 | 67 | 1007.8 |
| 20260901011631 | 89 | 116 | 3.0 | 5.0 | 0.00 | 0.00 | 0.00 | 67 | 1007.8 |
| 20260901011532 | 89 | 133 | 2.0 | 5.0 | 0.00 | 0.00 | 0.00 | 67 | 1007.7 |
| 20260901011431 | 89 | 133 | 2.0 | 5.0 | 0.00 | 0.00 | 0.00 | 67 | 1007.7 |
| 20260901011333 | 89 | 133 | 2.0 | 5.0 | 0.00 | 0.00 | 0.00 | 67 | 1007.7 |
| 20260901011232 | 89 | 134 | 2.0 | 5.0 | 0.00 | 0.00 | 0.00 | 66 | 1007.7 |
| 20260901011131 | 89 | 138 | 2.0 | 5.0 | 0.00 | 0.00 | 0.00 | 66 | 1007.8 |
| 20260901011022 | 89 | 109 | 3.0 | 5.0 | 0.00 | 0.00 | 0.00 | 66 | 1007.8 |
| 20260901010916 | 89 | 107 | 3.0 | 6.0 | 0.00 | 0.00 | 0.00 | 66 | 1007.7 |
| 20260901010814 | 89 | 123 | 2.0 | 6.0 | 0.00 | 0.00 | 0.00 | 66 | 1007.8 |
| 20260901010713 | 89 | 120 | 2.0 | 6.0 | 0.00 | 0.00 | 0.00 | 66 | 1007.8 |
| 20260901010611 | 89 | 121 | 2.0 | 6.0 | 0.00 | 0.00 | 0.00 | 66 | 1007.8 |
| 20260901010508 | 89 | 130 | 2.0 | 7.0 | 0.00 | 0.00 | 0.00 | 66 | 1007.7 |
| 20260901010407 | 89 | 127 | 2.0 | 7.0 | 0.00 | 0.00 | 0.00 | 66 | 1007.7 |
| 20260901010305 | 89 | 140 | 2.0 | 7.0 | 0.00 | 0.00 | 0.00 | 66 | 1007.7 |
| 20260901010205 | 89 | 131 | 3.0 | 7.0 | 0.00 | 0.00 | 0.00 | 66 | 1007.7 |
| 20260901010106 | 89 | 133 | 5.0 | 7.0 | 0.00 | 0.00 | 0.00 | 66 | 1007.7 |
| 20260901010007 | 89 | 104 | 5.0 | 7.0 | 0.00 | 0.00 | 0.00 | 66 | 1007.7 |
| 20260901005907 | 89 | 111 | 4.0 | 7.0 | 0.00 | 0.00 | 0.00 | 66 | 1007.7 |
| 20260901005806 | 89 | 107 | 4.0 | 7.0 | 0.00 | 0.00 | 0.00 | 65 | 1007.7 |
| 20260901005705 | 89 | 106 | 5.0 | 7.0 | 0.00 | 0.00 | 0.00 | 65 | 1007.7 |
| 20260901005605 | 90 | 106 | 4.0 | 7.0 | 0.00 | 0.00 | 0.00 | 65 | 1007.7 |
| 20260901005505 | 90 | 106 | 3.0 | 5.0 | 0.00 | 0.00 | 0.00 | 65 | 1007.6 |
| 20260901005405 | 90 | 103 | 3.0 | 5.0 | 0.00 | 0.00 | 0.00 | 65 | 1007.7 |
| 20260901005307 | 90 | 127 | 4.0 | 5.0 | 0.00 | 0.00 | 0.00 | 65 | 1007.7 |
| 20260901005205 | 90 | 109 | 3.0 | 6.0 | 0.00 | 0.00 | 0.00 | 65 | 1007.7 |
| 20260901005105 | 90 | 110 | 2.0 | 6.0 | 0.00 | 0.00 | 0.00 | 65 | 1007.7 |
| 20260901005006 | 90 | 109 | 2.0 | 7.0 | 0.00 | 0.00 | 0.00 | 65 | 1007.7 |
| 20260901004905 | 90 | 110 | 3.0 | 7.0 | 0.00 | 0.00 | 0.00 | 65 | 1007.7 |
| 20260901004806 | 90 | 110 | 4.0 | 7.0 | 0.00 | 0.00 | 0.00 | 65 | 1007.8 |
| 20260901004702 | 90 | 102 | 3.0 | 7.0 | 0.00 | 0.00 | 0.00 | 65 | 1007.7 |
| 20260901004602 | 90 | 104 | 3.0 | 7.0 | 0.00 | 0.00 | 0.00 | 65 | 1007.8 |
| 20260901004502 | 90 | 106 | 3.0 | 7.0 | 0.00 | 0.00 | 0.00 | 65 | 1007.7 |
| 20260901004403 | 90 | 110 | 4.0 | 7.0 | 0.00 | 0.00 | 0.00 | 65 | 1007.8 |
| 20260901004304 | 90 | 109 | 5.0 | 7.0 | 0.00 | 0.00 | 0.00 | 65 | 1007.7 |
| 20260901004204 | 90 | 103 | 5.0 | 7.0 | 0.00 | 0.00 | 0.00 | 65 | 1007.8 |
| 20260901004102 | 90 | 102 | 4.0 | 7.0 | 0.00 | 0.00 | 0.00 | 65 | 1007.8 |
| 20260901004003 | 90 | 94 | 3.0 | 6.0 | 0.00 | 0.00 | 0.00 | 65 | 1007.8 |
| 20260901003902 | 90 | 102 | 3.0 | 6.0 | 0.00 | 0.00 | 0.00 | 64 | 1007.7 |
| 20260901003802 | 90 | 111 | 4.0 | 6.0 | 0.00 | 0.00 | 0.00 | 64 | 1007.8 |
| 20260901003702 | 90 | 102 | 5.0 | 6.0 | 0.00 | 0.00 | 0.00 | 64 | 1007.8 |
| 20260901003602 | 90 | 110 | 5.0 | 6.0 | 0.00 | 0.00 | 0.00 | 64 | 1007.8 |
| 20260901003504 | 90 | 104 | 4.0 | 6.0 | 0.00 | 0.00 | 0.00 | 65 | 1007.8 |
| 20260901003403 | 90 | 92 | 3.0 | 5.0 | 0.00 | 0.00 | 0.00 | 65 | 1007.8 |
| 20260901003302 | 90 | 103 | 3.0 | 5.0 | 0.00 | 0.00 | 0.00 | 64 | 1007.8 |
| 20260901003203 | 90 | 103 | 2.0 | 5.0 | 0.00 | 0.00 | 0.00 | 64 | 1007.8 |
| 20260901003103 | 90 | 124 | 3.0 | 5.0 | 0.00 | 0.00 | 0.00 | 64 | 1007.9 |
| 20260901003005 | 90 | 121 | 3.0 | 5.0 | 0.00 | 0.00 | 0.00 | 64 | 1007.8 |
| 20260901002903 | 90 | 135 | 3.0 | 5.0 | 0.00 | 0.00 | 0.00 | 64 | 1007.8 |
| 20260901002803 | 90 | 117 | 3.0 | 5.0 | 0.00 | 0.00 | 0.00 | 64 | 1007.9 |
| 20260901002702 | 90 | 123 | 3.0 | 5.0 | 0.00 | 0.00 | 0.00 | 64 | 1007.8 |
| 20260901002603 | 90 | 125 | 3.0 | 5.0 | 0.00 | 0.00 | 0.00 | 64 | 1007.8 |
| 20260901002502 | 90 | 127 | 3.0 | 5.0 | 0.00 | 0.00 | 0.00 | 64 | 1007.8 |
| 20260901002402 | 90 | 107 | 3.0 | 5.0 | 0.00 | 0.00 | 0.00 | 64 | 1007.7 |
| 20260901002305 | 90 | 104 | 3.0 | 5.0 | 0.00 | 0.00 | 0.00 | 64 | 1007.8 |
| 20260901002204 | 90 | 120 | 3.0 | 5.0 | 0.00 | 0.00 | 0.00 | 64 | 1007.8 |
| 20260901002102 | 90 | 145 | 3.0 | 5.0 | 0.00 | 0.00 | 0.00 | 64 | 1007.8 |
| 20260901002004 | 90 | 138 | 3.0 | 6.0 | 0.00 | 0.00 | 0.00 | 64 | 1007.8 |
| 20260901001903 | 91 | 130 | 2.0 | 6.0 | 0.00 | 0.00 | 0.00 | 64 | 1007.8 |
| 20260901001803 | 91 | 120 | 2.0 | 7.0 | 0.00 | 0.00 | 0.00 | 64 | 1007.7 |
| 20260901001704 | 91 | 121 | 2.0 | 7.0 | 0.00 | 0.00 | 0.00 | 64 | 1007.8 |
| 20260901001604 | 91 | 116 | 3.0 | 7.0 | 0.00 | 0.00 | 0.00 | 64 | 1007.8 |
| 20260901001504 | 91 | 104 | 4.0 | 7.0 | 0.00 | 0.00 | 0.00 | 63 | 1007.7 |
| 20260901001403 | 91 | 103 | 4.0 | 7.0 | 0.00 | 0.00 | 0.00 | 63 | 1007.7 |
| 20260901001302 | 91 | 99 | 4.0 | 10.0 | 0.00 | 0.00 | 0.00 | 63 | 1007.8 |
| 20260901001203 | 91 | 96 | 4.0 | 10.0 | 0.00 | 0.00 | 0.00 | 63 | 1007.7 |
| 20260901001103 | 91 | 96 | 4.0 | 10.0 | 0.00 | 0.00 | 0.00 | 63 | 1007.8 |
| 20260901001005 | 91 | 121 | 4.0 | 10.0 | 0.00 | 0.00 | 0.00 | 63 | 1007.8 |
| 20260901000902 | 91 | 104 | 5.0 | 10.0 | 0.00 | 0.00 | 0.00 | 62 | 1007.8 |
| 20260901000802 | 91 | 97 | 5.0 | 10.0 | 0.00 | 0.00 | 0.00 | 62 | 1007.7 |
| 20260901000702 | 91 | 87 | 5.0 | 10.0 | 0.00 | 0.00 | 0.00 | 62 | 1007.8 |
| 20260901000604 | 91 | 96 | 5.0 | 10.0 | 0.00 | 0.00 | 0.00 | 62 | 1007.8 |
| 20260901000503 | 91 | 109 | 6.0 | 10.0 | 0.00 | 0.00 | 0.00 | 62 | 1007.8 |
| 20260901000405 | 91 | 111 | 6.0 | 10.0 | 0.00 | 0.00 | 0.00 | 62 | 1007.9 |
| 20260901000304 | 91 | 109 | 4.0 | 7.0 | 0.00 | 0.00 | 0.00 | 62 | 1007.8 |
| 20260901000204 | 91 | 106 | 4.0 | 7.0 | 0.00 | 0.00 | 0.00 | 62 | 1007.9 |
| 20260901000103 | 91 | 125 | 4.0 | 10.0 | 0.00 | 0.00 | 0.00 | 62 | 1007.8 |
| 20260901000002 | 91 | 124 | 2.0 | 10.0 | 0.00 | 0.00 | 0.00 | 62 | 1007.9 |
| 20260831235902 | 91 | 121 | 3.0 | 10.0 | 0.00 | 0.00 | 0.00 | 62 | 1007.8 |
| 20260831235804 | 91 | 110 | 4.0 | 10.0 | 0.00 | 0.00 | 0.00 | 62 | 1007.9 |
| 20260831235703 | 91 | 134 | 4.0 | 10.0 | 0.00 | 0.00 | 0.00 | 62 | 1007.8 |
| 20260831235604 | 91 | 128 | 5.0 | 10.0 | 0.00 | 0.00 | 0.00 | 62 | 1007.8 |
| 20260831235502 | 91 | 80 | 5.0 | 10.0 | 0.00 | 0.00 | 0.00 | 62 | 1007.8 |
| 20260831235401 | 91 | 85 | 5.0 | 10.0 | 0.00 | 0.00 | 0.00 | 62 | 1007.8 |
| 20260831235306 | 91 | 106 | 6.0 | 10.0 | 0.00 | 0.00 | 0.00 | 62 | 1007.9 |
| 20260831235202 | 91 | 89 | 6.0 | 10.0 | 0.00 | 0.00 | 0.00 | 62 | 1007.9 |
| 20260831235103 | 91 | 97 | 7.0 | 10.0 | 0.00 | 0.00 | 0.00 | 62 | 1007.9 |
| 20260831235003 | 91 | 106 | 6.0 | 10.0 | 0.00 | 0.00 | 0.00 | 62 | 1007.9 |
| 20260831234904 | 91 | 111 | 5.0 | 9.0 | 0.00 | 0.00 | 0.00 | 62 | 1007.9 |
| 20260831234803 | 91 | 102 | 5.0 | 9.0 | 0.00 | 0.00 | 0.00 | 62 | 1007.9 |
| 20260831234704 | 91 | 114 | 5.0 | 9.0 | 0.00 | 0.00 | 0.00 | 62 | 1007.9 |
| 20260831234604 | 91 | 109 | 4.0 | 9.0 | 0.00 | 0.00 | 0.00 | 61 | 1007.9 |
| 20260831234504 | 91 | 94 | 5.0 | 9.0 | 0.00 | 0.00 | 0.00 | 61 | 1007.9 |
| 20260831234402 | 91 | 113 | 5.0 | 10.0 | 0.00 | 0.00 | 0.00 | 61 | 1007.9 |
| 20260831234302 | 91 | 92 | 6.0 | 10.0 | 0.00 | 0.00 | 0.00 | 61 | 1007.9 |
| 20260831234204 | 91 | 94 | 6.0 | 10.0 | 0.00 | 0.00 | 0.00 | 61 | 1007.9 |
| 20260831234104 | 91 | 87 | 6.0 | 10.0 | 0.00 | 0.00 | 0.00 | 61 | 1007.9 |
| 20260831234003 | 91 | 78 | 6.0 | 10.0 | 0.00 | 0.00 | 0.00 | 61 | 1007.9 |
| 20260831233903 | 91 | 106 | 6.0 | 10.0 | 0.00 | 0.00 | 0.00 | 61 | 1007.8 |
| 20260831233803 | 91 | 97 | 6.0 | 10.0 | 0.00 | 0.00 | 0.00 | 61 | 1007.9 |
| 20260831233703 | 91 | 106 | 6.0 | 10.0 | 0.00 | 0.00 | 0.00 | 60 | 1007.9 |
| 20260831233603 | 91 | 114 | 6.0 | 10.0 | 0.00 | 0.00 | 0.00 | 60 | 1008.0 |
| 20260831233503 | 91 | 103 | 6.0 | 10.0 | 0.00 | 0.00 | 0.00 | 60 | 1007.9 |
| 20260831233403 | 91 | 97 | 6.0 | 10.0 | 0.00 | 0.00 | 0.00 | 59 | 1007.9 |
| 20260831233302 | 91 | 106 | 7.0 | 10.0 | 0.00 | 0.00 | 0.00 | 59 | 1007.9 |
| 20260831233204 | 91 | 93 | 7.0 | 10.0 | 0.00 | 0.00 | 0.00 | 59 | 1007.8 |
| 20260831233102 | 91 | 86 | 6.0 | 10.0 | 0.00 | 0.00 | 0.00 | 59 | 1007.9 |
| 20260831233004 | 91 | 94 | 6.0 | 10.0 | 0.00 | 0.00 | 0.00 | 59 | 1007.9 |
| 20260831232906 | 91 | 116 | 6.0 | 10.0 | 0.00 | 0.00 | 0.00 | 59 | 1007.8 |
| 20260831232805 | 91 | 110 | 6.0 | 10.0 | 0.00 | 0.00 | 0.00 | 59 | 1007.9 |
| 20260831232705 | 91 | 120 | 6.0 | 10.0 | 0.00 | 0.00 | 0.00 | 59 | 1007.8 |
| 20260831232604 | 91 | 85 | 6.0 | 10.0 | 0.00 | 0.00 | 0.00 | 58 | 1007.9 |
| 20260831232503 | 91 | 102 | 5.0 | 10.0 | 0.00 | 0.00 | 0.00 | 58 | 1007.9 |
| 20260831232356 | 91 | 93 | 6.0 | 10.0 | 0.00 | 0.00 | 0.00 | 58 | 1007.8 |
| 20260831232252 | 91 | 97 | 6.0 | 10.0 | 0.00 | 0.00 | 0.00 | 58 | 1007.8 |
| 20260831232152 | 91 | 82 | 6.0 | 10.0 | 0.00 | 0.00 | 0.00 | 57 | 1007.8 |
| 20260831232046 | 91 | 106 | 7.0 | 10.0 | 0.00 | 0.00 | 0.00 | 57 | 1007.8 |
| 20260831231945 | 91 | 100 | 6.0 | 10.0 | 0.00 | 0.00 | 0.00 | 57 | 1007.7 |
| 20260831231841 | 91 | 109 | 5.0 | 10.0 | 0.00 | 0.00 | 0.00 | 57 | 1007.7 |
| 20260831231738 | 91 | 111 | 5.0 | 10.0 | 0.00 | 0.00 | 0.00 | 57 | 1007.7 |
| 20260831231635 | 91 | 96 | 5.0 | 10.0 | 0.00 | 0.00 | 0.00 | 57 | 1007.7 |
| 20260831231535 | 91 | 100 | 6.0 | 10.0 | 0.00 | 0.00 | 0.00 | 57 | 1007.7 |
| 20260831231432 | 91 | 109 | 5.0 | 10.0 | 0.00 | 0.00 | 0.00 | 56 | 1007.7 |
| 20260831231332 | 91 | 55 | 5.0 | 9.0 | 0.00 | 0.00 | 0.00 | 56 | 1007.7 |
| 20260831231232 | 91 | 100 | 5.0 | 9.0 | 0.00 | 0.00 | 0.00 | 56 | 1007.8 |
| 20260831231131 | 91 | 93 | 6.0 | 9.0 | 0.00 | 0.00 | 0.00 | 56 | 1007.7 |
| 20260831231032 | 92 | 73 | 6.0 | 9.0 | 0.00 | 0.00 | 0.00 | 56 | 1007.7 |
| 20260831230930 | 92 | 85 | 4.0 | 9.0 | 0.00 | 0.00 | 0.00 | 56 | 1007.7 |
| 20260831230827 | 92 | 92 | 4.0 | 9.0 | 0.00 | 0.00 | 0.00 | 55 | 1007.7 |
| 20260831230724 | 92 | 106 | 5.0 | 9.0 | 0.00 | 0.00 | 0.00 | 55 | 1007.6 |
| 20260831230623 | 92 | 93 | 5.0 | 9.0 | 0.00 | 0.00 | 0.00 | 55 | 1007.7 |
| 20260831230520 | 92 | 86 | 4.0 | 9.0 | 0.00 | 0.00 | 0.00 | 55 | 1007.6 |
| 20260831230415 | 92 | 107 | 4.0 | 9.0 | 0.00 | 0.00 | 0.00 | 55 | 1007.6 |
| 20260831230311 | 92 | 86 | 5.0 | 9.0 | 0.00 | 0.00 | 0.00 | 55 | 1007.6 |
| 20260831230210 | 92 | 100 | 6.0 | 9.0 | 0.00 | 0.00 | 0.00 | 55 | 1007.6 |
| 20260831230104 | 92 | 102 | 5.0 | 9.0 | 0.00 | 0.00 | 0.00 | 55 | 1007.6 |
| 20260831230003 | 92 | 99 | 5.0 | 9.0 | 0.00 | 0.00 | 0.00 | 55 | 1007.6 |
| 20260831225903 | 92 | 93 | 5.0 | 9.0 | 0.00 | 0.00 | 0.00 | 55 | 1007.7 |
| 20260831225803 | 92 | 82 | 4.0 | 9.0 | 0.00 | 0.00 | 0.00 | 55 | 1007.7 |
| 20260831225701 | 92 | 87 | 4.0 | 9.0 | 0.00 | 0.00 | 0.00 | 55 | 1007.7 |
| 20260831225603 | 92 | 97 | 4.0 | 9.0 | 0.00 | 0.00 | 0.00 | 55 | 1007.7 |
| 20260831225503 | 92 | 96 | 2.0 | 7.0 | 0.00 | 0.00 | 0.00 | 55 | 1007.7 |
| 20260831225402 | 92 | 96 | 3.0 | 7.0 | 0.00 | 0.00 | 0.00 | 55 | 1007.7 |
| 20260831225305 | 92 | 92 | 4.0 | 7.0 | 0.00 | 0.00 | 0.00 | 55 | 1007.6 |
| 20260831225203 | 92 | 90 | 5.0 | 7.0 | 0.00 | 0.00 | 0.00 | 55 | 1007.6 |
| 20260831225104 | 92 | 97 | 5.0 | 7.0 | 0.00 | 0.00 | 0.00 | 55 | 1007.6 |
| 20260831225001 | 92 | 100 | 5.0 | 9.0 | 0.00 | 0.00 | 0.00 | 55 | 1007.7 |
| 20260831224903 | 92 | 99 | 4.0 | 9.0 | 0.00 | 0.00 | 0.00 | 55 | 1007.6 |
| 20260831224758 | 92 | 111 | 4.0 | 10.0 | 0.00 | 0.00 | 0.00 | 55 | 1007.8 |
| 20260831224657 | 92 | 109 | 6.0 | 10.0 | 0.00 | 0.00 | 0.00 | 54 | 1007.8 |
| 20260831224532 | 92 | 92 | 5.0 | 10.0 | 0.00 | 0.00 | 0.00 | 54 | 1007.7 |
| 20260831224431 | 92 | 104 | 5.0 | 10.0 | 0.00 | 0.00 | 0.00 | 55 | 1007.8 |
| 20260831224331 | 92 | 106 | 5.0 | 10.0 | 0.00 | 0.00 | 0.00 | 55 | 1007.7 |
| 20260831224231 | 92 | 76 | 5.0 | 10.0 | 0.00 | 0.00 | 0.00 | 55 | 1007.7 |
| 20260831224132 | 92 | 114 | 5.0 | 10.0 | 0.00 | 0.00 | 0.00 | 54 | 1007.7 |
| 20260831224033 | 92 | 103 | 6.0 | 10.0 | 0.00 | 0.00 | 0.00 | 54 | 1007.7 |
| 20260831223933 | 92 | 82 | 6.0 | 10.0 | 0.00 | 0.00 | 0.00 | 55 | 1007.8 |
| 20260831223832 | 92 | 96 | 5.0 | 10.0 | 0.00 | 0.00 | 0.00 | 55 | 1007.8 |
| 20260831223732 | 92 | 86 | 4.0 | 10.0 | 0.00 | 0.00 | 0.00 | 55 | 1007.8 |
| 20260831223629 | 92 | 100 | 5.0 | 10.0 | 0.00 | 0.00 | 0.00 | 55 | 1007.8 |
| 20260831223525 | 92 | 107 | 6.0 | 10.0 | 0.00 | 0.00 | 0.00 | 55 | 1007.8 |
| 20260831223418 | 92 | 109 | 6.0 | 10.0 | 0.00 | 0.00 | 0.00 | 54 | 1007.8 |
| 20260831223317 | 92 | 103 | 6.0 | 10.0 | 0.00 | 0.00 | 0.00 | 55 | 1007.8 |
| 20260831223215 | 92 | 118 | 6.0 | 10.0 | 0.00 | 0.00 | 0.00 | 55 | 1007.8 |
| 20260831223111 | 92 | 106 | 6.0 | 10.0 | 0.00 | 0.00 | 0.00 | 55 | 1007.8 |
| 20260831223007 | 92 | 111 | 6.0 | 10.0 | 0.00 | 0.00 | 0.00 | 55 | 1007.8 |
| 20260831222904 | 92 | 114 | 6.0 | 10.0 | 0.00 | 0.00 | 0.00 | 55 | 1007.8 |
| 20260831222803 | 92 | 113 | 5.0 | 10.0 | 0.00 | 0.00 | 0.00 | 55 | 1007.9 |
| 20260831222703 | 92 | 117 | 6.0 | 10.0 | 0.00 | 0.00 | 0.00 | 55 | 1007.8 |
| 20260831222603 | 92 | 104 | 6.0 | 10.0 | 0.00 | 0.00 | 0.00 | 55 | 1007.9 |
| 20260831222455 | 92 | 94 | 5.0 | 9.0 | 0.00 | 0.00 | 0.00 | 55 | 1008.0 |
| 20260831222354 | 92 | 78 | 4.0 | 9.0 | 0.00 | 0.00 | 0.00 | 56 | 1007.9 |
| 20260831222232 | 92 | 102 | 5.0 | 9.0 | 0.00 | 0.00 | 0.00 | 56 | 1008.0 |
| 20260831222132 | 92 | 111 | 6.0 | 9.0 | 0.00 | 0.00 | 0.00 | 56 | 1007.9 |
| 20260831222033 | 92 | 110 | 6.0 | 9.0 | 0.00 | 0.00 | 0.00 | 56 | 1007.9 |
| 20260831221932 | 92 | 109 | 6.0 | 11.0 | 0.00 | 0.00 | 0.00 | 56 | 1007.9 |
| 20260831221831 | 92 | 110 | 5.0 | 11.0 | 0.00 | 0.00 | 0.00 | 56 | 1007.9 |
| 20260831221731 | 92 | 109 | 5.0 | 11.0 | 0.00 | 0.00 | 0.00 | 56 | 1007.9 |
| 20260831221632 | 92 | 114 | 6.0 | 11.0 | 0.00 | 0.00 | 0.00 | 56 | 1007.9 |
| 20260831221529 | 92 | 111 | 7.0 | 11.0 | 0.00 | 0.00 | 0.00 | 56 | 1007.9 |
| 20260831221422 | 92 | 117 | 7.0 | 11.0 | 0.00 | 0.00 | 0.00 | 57 | 1007.9 |
| 20260831221320 | 92 | 96 | 6.0 | 11.0 | 0.00 | 0.00 | 0.00 | 57 | 1007.9 |
| 20260831221219 | 92 | 116 | 6.0 | 11.0 | 0.00 | 0.00 | 0.00 | 57 | 1007.9 |
| 20260831221108 | 92 | 127 | 7.0 | 11.0 | 0.00 | 0.00 | 0.00 | 57 | 1007.9 |
| 20260831221005 | 92 | 109 | 8.0 | 11.0 | 0.00 | 0.00 | 0.00 | 57 | 1007.9 |
| 20260831220904 | 92 | 117 | 6.0 | 10.0 | 0.00 | 0.00 | 0.00 | 57 | 1007.9 |
| 20260831220802 | 92 | 107 | 6.0 | 10.0 | 0.00 | 0.00 | 0.00 | 58 | 1007.8 |
| 20260831220656 | 92 | 96 | 7.0 | 10.0 | 0.00 | 0.00 | 0.00 | 58 | 1007.8 |
| 20260831220549 | 92 | 117 | 7.0 | 10.0 | 0.00 | 0.00 | 0.00 | 58 | 1007.9 |
| 20260831220446 | 92 | 96 | 6.0 | 10.0 | 0.00 | 0.00 | 0.00 | 59 | 1007.9 |
| 20260831220337 | 92 | 76 | 6.0 | 12.0 | 0.00 | 0.00 | 0.00 | 59 | 1008.0 |
| 20260831220232 | 92 | 104 | 6.0 | 12.0 | 0.00 | 0.00 | 0.00 | 59 | 1007.9 |
| 20260831220131 | 92 | 73 | 7.0 | 12.0 | 0.00 | 0.00 | 0.00 | 59 | 1007.9 |
| 20260831220032 | 92 | 103 | 8.0 | 12.0 | 0.00 | 0.00 | 0.00 | 59 | 1007.9 |
| 20260831215933 | 92 | 99 | 7.0 | 12.0 | 0.00 | 0.00 | 0.00 | 59 | 1007.9 |
| 20260831215832 | 92 | 103 | 7.0 | 12.0 | 0.00 | 0.00 | 0.00 | 59 | 1008.0 |
| 20260831215720 | 92 | 83 | 7.0 | 12.0 | 0.00 | 0.00 | 0.00 | 60 | 1008.0 |
| 20260831215616 | 92 | 85 | 9.0 | 12.0 | 0.00 | 0.00 | 0.00 | 60 | 1007.9 |
| 20260831215505 | 92 | 93 | 9.0 | 12.0 | 0.00 | 0.00 | 0.00 | 60 | 1008.0 |
| 20260831215402 | 92 | 97 | 9.0 | 14.0 | 0.00 | 0.00 | 0.00 | 60 | 1008.0 |
| 20260831215301 | 92 | 87 | 7.0 | 14.0 | 0.00 | 0.00 | 0.00 | 61 | 1007.9 |
| 20260831215202 | 92 | 109 | 7.0 | 14.0 | 0.00 | 0.00 | 0.00 | 61 | 1008.0 |
| 20260831215102 | 92 | 104 | 7.0 | 14.0 | 0.00 | 0.00 | 0.00 | 61 | 1008.1 |
| 20260831215002 | 91 | 107 | 6.0 | 14.0 | 0.00 | 0.00 | 0.00 | 61 | 1008.0 |
| 20260831214903 | 91 | 120 | 8.0 | 14.0 | 0.00 | 0.00 | 0.00 | 61 | 1008.0 |
| 20260831214802 | 91 | 87 | 8.0 | 14.0 | 0.00 | 0.00 | 0.00 | 61 | 1008.1 |
| 20260831214701 | 91 | 94 | 8.0 | 14.0 | 0.00 | 0.00 | 0.00 | 62 | 1008.1 |
| 20260831214602 | 92 | 90 | 10.0 | 14.0 | 0.00 | 0.00 | 0.00 | 62 | 1008.1 |
| 20260831214503 | 92 | 97 | 9.0 | 14.0 | 0.00 | 0.00 | 0.00 | 62 | 1008.1 |
| 20260831214401 | 92 | 114 | 8.0 | 14.0 | 0.00 | 0.00 | 0.00 | 63 | 1008.1 |
| 20260831214302 | 92 | 100 | 8.0 | 14.0 | 0.00 | 0.00 | 0.00 | 63 | 1008.2 |
| 20260831214203 | 92 | 75 | 9.0 | 14.0 | 0.00 | 0.00 | 0.00 | 63 | 1008.2 |
| 20260831214102 | 92 | 93 | 9.0 | 14.0 | 0.00 | 0.00 | 0.00 | 63 | 1008.2 |
| 20260831214001 | 92 | 96 | 10.0 | 14.0 | 0.00 | 0.00 | 0.00 | 63 | 1008.2 |
| 20260831213904 | 92 | 111 | 10.0 | 14.0 | 0.00 | 0.00 | 0.00 | 63 | 1008.2 |
| 20260831213801 | 92 | 99 | 9.0 | 14.0 | 0.00 | 0.00 | 0.00 | 63 | 1008.3 |
| 20260831213701 | 92 | 99 | 7.0 | 14.0 | 0.00 | 0.00 | 0.00 | 62 | 1008.2 |
| 20260831213603 | 92 | 103 | 9.0 | 14.0 | 0.00 | 0.00 | 0.00 | 62 | 1008.2 |
| 20260831213503 | 92 | 103 | 10.0 | 14.0 | 0.00 | 0.00 | 0.00 | 62 | 1008.2 |
| 20260831213403 | 92 | 78 | 9.0 | 14.0 | 0.00 | 0.00 | 0.00 | 62 | 1008.1 |
| 20260831213301 | 93 | 76 | 8.0 | 13.0 | 0.00 | 0.00 | 0.00 | 62 | 1008.4 |
| 20260831213202 | 93 | 93 | 8.0 | 13.0 | 0.00 | 0.00 | 0.00 | 62 | 1008.4 |
| 20260831213102 | 93 | 110 | 9.0 | 13.0 | 0.00 | 0.00 | 0.00 | 62 | 1008.4 |
| 20260831213001 | 93 | 104 | 7.0 | 13.0 | 0.00 | 0.00 | 0.00 | 62 | 1008.3 |
| 20260831212903 | 93 | 109 | 8.0 | 14.0 | 0.00 | 0.00 | 0.00 | 62 | 1008.3 |
| 20260831212801 | 93 | 82 | 8.0 | 14.0 | 0.00 | 0.00 | 0.00 | 61 | 1008.4 |
| 20260831212701 | 93 | 97 | 8.0 | 14.0 | 0.00 | 0.00 | 0.00 | 61 | 1008.4 |
| 20260831212600 | 94 | 82 | 7.0 | 14.0 | 0.00 | 0.00 | 0.00 | 61 | 1008.3 |
| 20260831212500 | 94 | 89 | 7.0 | 14.0 | 0.00 | 0.00 | 0.00 | 60 | 1008.3 |
| 20260831212400 | 94 | 82 | 7.0 | 14.0 | 0.00 | 0.00 | 0.00 | 60 | 1008.3 |
| 20260831212300 | 94 | 76 | 8.0 | 14.0 | 0.00 | 0.00 | 0.00 | 59 | 1008.3 |
| 20260831212202 | 94 | 100 | 9.0 | 14.0 | 0.00 | 0.00 | 0.00 | 59 | 1008.3 |
| 20260831212101 | 94 | 121 | 10.0 | 14.0 | 0.00 | 0.00 | 0.00 | 58 | 1008.3 |
| 20260831212001 | 94 | 99 | 10.0 | 14.0 | 0.00 | 0.00 | 0.00 | 57 | 1008.3 |
| 20260831211900 | 94 | 100 | 9.0 | 14.0 | 0.00 | 0.00 | 0.00 | 57 | 1008.3 |
| 20260831211802 | 94 | 102 | 8.0 | 14.0 | 0.00 | 0.00 | 0.00 | 57 | 1008.3 |
| 20260831211702 | 94 | 113 | 9.0 | 14.0 | 0.00 | 0.00 | 0.00 | 57 | 1008.2 |
| 20260831211602 | 94 | 125 | 9.0 | 14.0 | 0.00 | 0.00 | 0.00 | 56 | 1008.3 |
| 20260831211502 | 94 | 99 | 10.0 | 14.0 | 0.00 | 0.00 | 0.00 | 56 | 1008.4 |
| 20260831211401 | 94 | 113 | 9.0 | 14.0 | 0.00 | 0.00 | 0.00 | 56 | 1008.4 |
| 20260831211301 | 94 | 118 | 8.0 | 12.0 | 0.00 | 0.00 | 0.00 | 55 | 1008.3 |
| 20260831211201 | 94 | 104 | 8.0 | 14.0 | 0.00 | 0.00 | 0.00 | 55 | 1008.4 |
| 20260831211101 | 94 | 94 | 7.0 | 14.0 | 0.00 | 0.00 | 0.00 | 55 | 1008.4 |
| 20260831211002 | 94 | 113 | 8.0 | 14.0 | 0.00 | 0.00 | 0.00 | 55 | 1008.4 |
| 20260831210900 | 94 | 76 | 8.0 | 14.0 | 0.00 | 0.00 | 0.00 | 55 | 1008.4 |
| 20260831210801 | 94 | 56 | 8.0 | 14.0 | 0.00 | 0.00 | 0.00 | 56 | 1008.4 |
| 20260831210701 | 94 | 90 | 9.0 | 14.0 | 0.00 | 0.00 | 0.00 | 57 | 1008.4 |
| 20260831210601 | 94 | 79 | 7.0 | 14.0 | 0.00 | 0.00 | 0.00 | 59 | 1008.4 |
| 20260831210502 | 94 | 78 | 8.0 | 14.0 | 0.00 | 0.00 | 0.00 | 59 | 1008.4 |
| 20260831210401 | 94 | 99 | 9.0 | 14.0 | 0.00 | 0.00 | 0.00 | 60 | 1008.4 |
| 20260831210300 | 94 | 90 | 10.0 | 14.0 | 0.00 | 0.00 | 0.00 | 59 | 1008.4 |
| 20260831210201 | 94 | 87 | 10.0 | 14.0 | 0.00 | 0.00 | 0.00 | 59 | 1008.4 |
| 20260831210000 | 94 | 113 | 8.0 | 12.0 | 0.00 | 0.00 | 0.00 | 59 | 1008.4 |
| 20260831205901 | 94 | 121 | 8.0 | 12.0 | 0.00 | 0.00 | 0.00 | 60 | 1008.4 |
| 20260831205800 | 94 | 111 | 7.0 | 12.0 | 0.00 | 0.00 | 0.00 | 60 | 1008.4 |
| 20260831205702 | 94 | 103 | 7.0 | 12.0 | 0.00 | 0.00 | 0.00 | 59 | 1008.4 |
| 20260831205600 | 94 | 89 | 8.0 | 12.0 | 0.00 | 0.00 | 0.00 | 59 | 1008.4 |
| 20260831205502 | 94 | 82 | 8.0 | 12.0 | 0.00 | 0.00 | 0.00 | 59 | 1008.4 |
| 20260831205401 | 94 | 107 | 9.0 | 12.0 | 0.00 | 0.00 | 0.00 | 59 | 1008.4 |
| 20260831205305 | 94 | 99 | 7.0 | 12.0 | 0.00 | 0.00 | 0.00 | 59 | 1008.3 |
| 20260831205201 | 94 | 113 | 6.0 | 12.0 | 0.00 | 0.00 | 0.00 | 58 | 1008.4 |
| 20260831205059 | 94 | 79 | 7.0 | 12.0 | 0.00 | 0.00 | 0.00 | 57 | 1008.5 |
| 20260831204959 | 94 | 103 | 9.0 | 12.0 | 0.00 | 0.00 | 0.00 | 57 | 1008.4 |
| 20260831204901 | 94 | 107 | 8.0 | 12.0 | 0.00 | 0.00 | 0.00 | 58 | 1008.4 |
| 20260831204800 | 94 | 109 | 8.0 | 12.0 | 0.00 | 0.00 | 0.00 | 58 | 1008.4 |
| 20260831204701 | 94 | 65 | 7.0 | 10.0 | 0.00 | 0.00 | 0.00 | 58 | 1008.5 |
| 20260831204601 | 94 | 49 | 5.0 | 9.0 | 0.00 | 0.00 | 0.00 | 59 | 1008.5 |
| 20260831204501 | 94 | 99 | 7.0 | 9.0 | 0.00 | 0.00 | 0.00 | 59 | 1008.5 |
| 20260831204401 | 94 | 99 | 7.0 | 9.0 | 0.00 | 0.00 | 0.00 | 59 | 1008.4 |
| 20260831204301 | 94 | 99 | 7.0 | 9.0 | 0.00 | 0.00 | 0.00 | 59 | 1008.5 |
| 20260831204202 | 94 | 107 | 7.0 | 9.0 | 0.00 | 0.00 | 0.00 | 59 | 1008.5 |
| 20260831204100 | 94 | 93 | 7.0 | 9.0 | 0.00 | 0.00 | 0.00 | 59 | 1008.5 |
| 20260831204000 | 94 | 89 | 5.0 | 9.0 | 0.00 | 0.00 | 0.00 | 59 | 1008.5 |
| 20260831203900 | 94 | 93 | 4.0 | 7.0 | 0.00 | 0.00 | 0.00 | 59 | 1008.6 |
| 20260831203801 | 94 | 90 | 4.0 | 7.0 | 0.00 | 0.00 | 0.00 | 59 | 1008.5 |
| 20260831203700 | 94 | 97 | 3.0 | 7.0 | 0.00 | 0.00 | 0.00 | 58 | 1008.7 |
| 20260831203601 | 94 | 78 | 2.0 | 7.0 | 0.00 | 0.00 | 0.00 | 57 | 1008.7 |
| 20260831203500 | 94 | 78 | 3.0 | 7.0 | 0.00 | 0.00 | 0.00 | 57 | 1008.7 |
| 20260831203400 | 94 | 87 | 4.0 | 7.0 | 0.00 | 0.00 | 0.00 | 57 | 1008.7 |
| 20260831203300 | 94 | 90 | 5.0 | 9.0 | 0.00 | 0.00 | 0.00 | 57 | 1008.7 |
| 20260831203200 | 94 | 109 | 5.0 | 9.0 | 0.00 | 0.00 | 0.00 | 57 | 1008.7 |
| 20260831203100 | 94 | 102 | 5.0 | 9.0 | 0.00 | 0.00 | 0.00 | 57 | 1008.7 |
| 20260831203001 | 94 | 104 | 4.0 | 9.0 | 0.00 | 0.00 | 0.00 | 59 | 1008.7 |
| 20260831202901 | 93 | 97 | 3.0 | 9.0 | 0.00 | 0.00 | 0.00 | 59 | 1008.8 |
| 20260831202801 | 94 | 54 | 3.0 | 9.0 | 0.00 | 0.00 | 0.00 | 59 | 1008.8 |
| 20260831202659 | 94 | 78 | 4.0 | 9.0 | 0.00 | 0.00 | 0.00 | 59 | 1008.8 |
| 20260831202601 | 94 | 59 | 5.0 | 9.0 | 0.00 | 0.00 | 0.00 | 59 | 1008.8 |
| 20260831202459 | 94 | 6 | 5.0 | 9.0 | 0.00 | 0.00 | 0.00 | 59 | 1008.8 |
| 20260831202402 | 94 | 10 | 3.0 | 9.0 | 0.00 | 0.00 | 0.00 | 59 | 1008.8 |
| 20260831202300 | 94 | 340 | 4.0 | 7.0 | 0.00 | 0.00 | 0.00 | 58 | 1008.9 |
| 20260831202200 | 94 | 16 | 5.0 | 7.0 | 0.00 | 0.00 | 0.00 | 58 | 1008.8 |
| 20260831202059 | 94 | 18 | 4.0 | 7.0 | 0.00 | 0.00 | 0.00 | 59 | 1008.9 |
| 20260831202002 | 94 | 17 | 2.0 | 9.0 | 0.00 | 0.00 | 0.00 | 59 | 1008.9 |
| 20260831201900 | 94 | 24 | 2.0 | 9.0 | 0.00 | 0.00 | 0.00 | 58 | 1009.0 |
| 20260831201801 | 94 | 20 | 3.0 | 9.0 | 0.00 | 0.00 | 0.00 | 58 | 1009.0 |
| 20260831201700 | 94 | 23 | 3.0 | 9.0 | 0.00 | 0.00 | 0.00 | 58 | 1009.0 |
| 20260831201559 | 95 | 10 | 3.0 | 9.0 | 0.00 | 0.00 | 0.00 | 57 | 1009.1 |
| 20260831201500 | 95 | 0 | 4.0 | 9.0 | 0.00 | 0.00 | 0.00 | 58 | 1009.1 |
| 20260831201400 | 95 | 41 | 4.0 | 9.0 | 0.00 | 0.00 | 0.00 | 58 | 1009.1 |
| 20260831201259 | 95 | 44 | 4.0 | 9.0 | 0.00 | 0.00 | 0.00 | 58 | 1009.1 |
| 20260831201200 | 95 | 37 | 5.0 | 9.0 | 0.00 | 0.00 | 0.00 | 58 | 1009.1 |
| 20260831201100 | 95 | 45 | 4.0 | 9.0 | 0.00 | 0.00 | 0.00 | 58 | 1009.2 |
| 20260831201000 | 95 | 34 | 3.0 | 9.0 | 0.00 | 0.00 | 0.00 | 58 | 1009.0 |
| 20260831200900 | 95 | 80 | 5.0 | 9.0 | 0.00 | 0.00 | 0.00 | 57 | 1009.0 |
| 20260831200800 | 96 | 21 | 4.0 | 9.0 | 0.00 | 0.00 | 0.00 | 57 | 1009.0 |
| 20260831200700 | 96 | 103 | 3.0 | 9.0 | 0.00 | 0.00 | 0.00 | 57 | 1009.0 |
| 20260831200559 | 95 | 27 | 4.0 | 9.0 | 0.00 | 0.00 | 0.00 | 57 | 1009.0 |
| 20260831200501 | 96 | 58 | 4.0 | 9.0 | 0.00 | 0.00 | 0.00 | 57 | 1009.0 |
| 20260831200359 | 96 | 41 | 4.0 | 9.0 | 0.00 | 0.00 | 0.00 | 56 | 1009.0 |
| 20260831200259 | 96 | 0 | 4.0 | 9.0 | 0.00 | 0.00 | 0.00 | 54 | 1009.0 |
| 20260831200200 | 96 | 58 | 5.0 | 9.0 | 0.00 | 0.00 | 0.00 | 54 | 1009.0 |
| 20260831200101 | 96 | 109 | 5.0 | 9.0 | 0.00 | 0.00 | 0.00 | 54 | 1009.0 |
| 20260831200001 | 97 | 68 | 5.0 | 9.0 | 0.00 | 0.00 | 0.00 | 54 | 1009.0 |
| 20260831195900 | 97 | 41 | 4.0 | 9.0 | 0.00 | 0.00 | 0.00 | 54 | 1009.0 |
| 20260831195759 | 96 | 83 | 3.0 | 6.0 | 0.00 | 0.00 | 0.00 | 54 | 1009.0 |
| 20260831195659 | 96 | 123 | 4.0 | 6.0 | 0.00 | 0.00 | 0.00 | 55 | 1009.0 |
| 20260831195600 | 96 | 106 | 4.0 | 6.0 | 0.00 | 0.00 | 0.00 | 56 | 1009.0 |
| 20260831195500 | 95 | 131 | 3.0 | 6.0 | 0.00 | 0.00 | 0.00 | 56 | 1009.1 |
| 20260831195400 | 95 | 116 | 3.0 | 6.0 | 0.00 | 0.00 | 0.00 | 56 | 1009.1 |
| 20260831195301 | 95 | 162 | 2.0 | 7.0 | 0.00 | 0.00 | 0.00 | 55 | 1009.1 |
| 20260831195159 | 95 | 121 | 1.0 | 7.0 | 0.00 | 0.00 | 0.00 | 55 | 1009.1 |
| 20260831195100 | 95 | 62 | 1.0 | 7.0 | 0.00 | 0.00 | 0.00 | 55 | 1009.1 |
| 20260831195000 | 95 | 62 | 1.0 | 7.0 | 0.00 | 0.00 | 0.00 | 55 | 1009.1 |
| 20260831194900 | 95 | 62 | 2.0 | 7.0 | 0.00 | 0.00 | 0.00 | 55 | 1009.1 |
| 20260831194758 | 95 | 62 | 3.0 | 7.0 | 0.00 | 0.00 | 0.00 | 55 | 1009.1 |
| 20260831194658 | 95 | 94 | 3.0 | 7.0 | 0.00 | 0.00 | 0.00 | 54 | 1009.3 |
| 20260831194559 | 95 | 102 | 3.0 | 7.0 | 0.00 | 0.00 | 0.00 | 54 | 1009.2 |
| 20260831194458 | 95 | 102 | 4.0 | 7.0 | 0.00 | 0.00 | 0.00 | 54 | 1009.2 |
| 20260831194400 | 95 | 92 | 5.0 | 7.0 | 0.00 | 0.00 | 0.00 | 54 | 1009.2 |
| 20260831194300 | 95 | 107 | 4.0 | 6.0 | 0.00 | 0.00 | 0.00 | 55 | 1009.2 |
| 20260831194159 | 95 | 100 | 2.0 | 7.0 | 0.00 | 0.00 | 0.00 | 55 | 1009.2 |
| 20260831194059 | 95 | 0 | 2.0 | 10.0 | 0.00 | 0.00 | 0.00 | 55 | 1009.3 |
| 20260831193959 | 95 | 309 | 3.0 | 10.0 | 0.00 | 0.00 | 0.00 | 56 | 1009.3 |
| 20260831193858 | 94 | 341 | 3.0 | 10.0 | 0.00 | 0.00 | 0.00 | 56 | 1009.3 |
| 20260831193800 | 94 | 347 | 3.0 | 10.0 | 0.00 | 0.00 | 0.00 | 55 | 1009.2 |
| 20260831193700 | 94 | 329 | 4.0 | 10.0 | 0.00 | 0.00 | 0.00 | 55 | 1009.3 |
| 20260831193557 | 94 | 351 | 4.0 | 10.0 | 0.00 | 0.00 | 0.00 | 56 | 1009.4 |
| 20260831193453 | 94 | 350 | 3.0 | 10.0 | 0.00 | 0.00 | 0.00 | 56 | 1009.4 |
| 20260831193349 | 95 | 18 | 4.0 | 10.0 | 0.00 | 0.00 | 0.00 | 56 | 1009.3 |
| 20260831193248 | 95 | 314 | 6.0 | 10.0 | 0.00 | 0.00 | 0.00 | 55 | 1009.4 |
| 20260831193143 | 95 | 0 | 5.0 | 10.0 | 0.00 | 0.00 | 0.00 | 55 | 1009.4 |
| 20260831193041 | 95 | 7 | 5.0 | 9.0 | 0.00 | 0.00 | 0.00 | 53 | 1009.4 |
| 20260831192939 | 96 | 347 | 6.0 | 9.0 | 0.00 | 0.00 | 0.00 | 53 | 1009.4 |
| 20260831192833 | 96 | 0 | 6.0 | 9.0 | 0.00 | 0.00 | 0.00 | 54 | 1009.4 |
| 20260831192732 | 96 | 17 | 5.0 | 9.0 | 0.00 | 0.00 | 0.00 | 54 | 1009.4 |
| 20260831192631 | 96 | 24 | 4.0 | 9.0 | 0.00 | 0.00 | 0.00 | 56 | 1009.4 |
| 20260831192533 | 96 | 35 | 4.0 | 9.0 | 0.00 | 0.00 | 0.00 | 56 | 1009.4 |
| 20260831192433 | 96 | 20 | 4.0 | 9.0 | 0.00 | 0.00 | 0.00 | 55 | 1009.5 |
| 20260831192332 | 96 | 16 | 4.0 | 9.0 | 0.00 | 0.00 | 0.00 | 55 | 1009.4 |
| 20260831192231 | 96 | 51 | 6.0 | 9.0 | 0.00 | 0.00 | 0.00 | 55 | 1009.4 |
| 20260831192132 | 96 | 109 | 5.0 | 9.0 | 0.00 | 0.00 | 0.00 | 54 | 1009.5 |
| 20260831192033 | 96 | 100 | 5.0 | 9.0 | 0.00 | 0.00 | 0.00 | 54 | 1009.5 |
| 20260831191932 | 96 | 111 | 6.0 | 9.0 | 0.00 | 0.00 | 0.00 | 55 | 1009.5 |
| 20260831191833 | 96 | 93 | 5.0 | 7.0 | 0.00 | 0.00 | 0.00 | 55 | 1009.5 |
| 20260831191732 | 96 | 66 | 4.0 | 6.0 | 0.00 | 0.00 | 0.00 | 54 | 1009.5 |
| 20260831191633 | 96 | 45 | 2.0 | 7.0 | 0.00 | 0.00 | 0.00 | 54 | 1009.5 |
| 20260831191533 | 96 | 73 | 0.0 | 9.0 | 0.00 | 0.00 | 0.00 | 54 | 1009.6 |
| 20260831191432 | 96 | 73 | 1.0 | 9.0 | 0.00 | 0.00 | 0.00 | 54 | 1009.6 |
| 20260831191333 | 96 | 73 | 2.0 | 9.0 | 0.00 | 0.00 | 0.00 | 55 | 1009.5 |
| 20260831191232 | 96 | 103 | 1.0 | 9.0 | 0.00 | 0.00 | 0.00 | 55 | 1009.6 |
| 20260831191131 | 95 | 159 | 1.0 | 9.0 | 0.00 | 0.00 | 0.00 | 55 | 1009.6 |
| 20260831191031 | 95 | 131 | 2.0 | 9.0 | 0.00 | 0.00 | 0.00 | 56 | 1009.6 |
| 20260831190931 | 94 | 133 | 2.0 | 9.0 | 0.00 | 0.00 | 0.00 | 56 | 1009.7 |
| 20260831190832 | 94 | 104 | 5.0 | 9.0 | 0.00 | 0.00 | 0.00 | 56 | 1009.7 |
| 20260831190731 | 94 | 21 | 7.0 | 9.0 | 0.00 | 0.00 | 0.00 | 56 | 1009.7 |
| 20260831190632 | 94 | 307 | 6.0 | 9.0 | 0.00 | 0.00 | 0.00 | 56 | 1009.7 |
| 20260831190532 | 94 | 289 | 4.0 | 9.0 | 0.00 | 0.00 | 0.00 | 56 | 1009.7 |
| 20260831190408 | 94 | 337 | 3.0 | 9.0 | 0.00 | 0.00 | 0.00 | 56 | 1009.8 |
| 20260831190306 | 94 | 71 | 3.0 | 9.0 | 0.00 | 0.00 | 0.00 | 56 | 1009.8 |
| 20260831190205 | 94 | 65 | 4.0 | 9.0 | 0.00 | 0.00 | 0.00 | 58 | 1009.8 |
| 20260831190003 | 94 | 87 | 5.0 | 9.0 | 0.00 | 0.00 | 0.00 | 57 | 1009.9 |
| 20260831185903 | 94 | 90 | 4.0 | 9.0 | 0.00 | 0.00 | 0.00 | 57 | 1009.8 |
| 20260831185803 | 94 | 85 | 3.0 | 6.0 | 0.00 | 0.00 | 0.00 | 57 | 1009.8 |
| 20260831185703 | 94 | 71 | 4.0 | 6.0 | 0.00 | 0.00 | 0.00 | 57 | 1009.8 |
| 20260831185604 | 94 | 65 | 3.0 | 6.0 | 0.00 | 0.00 | 0.00 | 57 | 1009.9 |
| 20260831185504 | 94 | 63 | 2.0 | 6.0 | 0.00 | 0.00 | 0.00 | 57 | 1009.9 |
| 20260831185403 | 94 | 71 | 3.0 | 6.0 | 0.00 | 0.00 | 0.00 | 57 | 1009.8 |
| 20260831185306 | 94 | 69 | 4.0 | 9.0 | 0.00 | 0.00 | 0.00 | 57 | 1009.8 |
| 20260831185204 | 94 | 63 | 3.0 | 9.0 | 0.00 | 0.00 | 0.00 | 57 | 1009.8 |
| 20260831185102 | 93 | 10 | 3.0 | 9.0 | 0.00 | 0.00 | 0.00 | 57 | 1009.9 |
| 20260831185005 | 93 | 45 | 3.0 | 9.0 | 0.00 | 0.00 | 0.00 | 57 | 1009.9 |
| 20260831184904 | 94 | 89 | 3.0 | 9.0 | 0.00 | 0.00 | 0.00 | 57 | 1009.9 |
| 20260831184803 | 93 | 44 | 3.0 | 9.0 | 0.00 | 0.00 | 0.00 | 58 | 1010.0 |
| 20260831184704 | 93 | 41 | 2.0 | 9.0 | 0.00 | 0.00 | 0.00 | 58 | 1009.9 |
| 20260831184605 | 93 | 83 | 3.0 | 9.0 | 0.00 | 0.00 | 0.00 | 57 | 1009.9 |
| 20260831184502 | 93 | 90 | 4.0 | 9.0 | 0.00 | 0.00 | 0.00 | 57 | 1010.0 |